Observation data for Tarzan on 09/13/2017      Previous  Date  Next       Current Mesonet Observations  Soil Data  Daily Summary Page  Observations in Plain Language
KTA1 130500Z 13007KT 24/11 A2992 RMK A01 T02400105  RH  042%=      5-min Rain = 0
KTA1 130501Z 13007KT 24/11 A2992 RMK A01 T02400105  RH  042%=      5-min Rain = 0
KTA1 130502Z 13006KT 24/11 A2992 RMK A01 T02400105  RH  043%=      5-min Rain = 0
KTA1 130503Z 13006KT 24/11 A2992 RMK A01 T02400105  RH  043%=      5-min Rain = 0
KTA1 130504Z 13006KT 24/11 A2992 RMK A01 T02390105  RH  043%=      5-min Rain = 0
KTA1 130505Z 13006KT 24/11 A2992 RMK A01 T02390105  RH  043%=      5-min Rain = 0
KTA1 130506Z 14007KT 24/11 A2992 RMK A01 T02380105  RH  043%=      5-min Rain = 0
KTA1 130507Z 14006KT 24/11 A2992 RMK A01 T02370105  RH  043%=      5-min Rain = 0
KTA1 130508Z 14006KT 24/11 A2992 RMK A01 T02370105  RH  043%=      5-min Rain = 0
KTA1 130509Z 14007KT 24/11 A2992 RMK A01 T02370105  RH  043%=      5-min Rain = 0
KTA1 130510Z 15007KT 24/11 A2992 RMK A01 T02370105  RH  043%=      5-min Rain = 0
KTA1 130511Z 15006KT 24/11 A2992 RMK A01 T02370105  RH  043%=      5-min Rain = 0
KTA1 130512Z 15007KT 24/11 A2992 RMK A01 T02370105  RH  043%=      5-min Rain = 0
KTA1 130513Z 15007KT 24/11 A2992 RMK A01 T02370105  RH  043%=      5-min Rain = 0
KTA1 130514Z 15007KT 24/10 A2992 RMK A01 T02370104  RH  043%=      5-min Rain = 0
KTA1 130515Z 15007KT 24/11 A2992 RMK A01 T02380105  RH  043%=      5-min Rain = 0
KTA1 130516Z 15007KT 24/11 A2992 RMK A01 T02390105  RH  043%=      5-min Rain = 0
KTA1 130517Z 15007KT 24/11 A2992 RMK A01 T02390105  RH  043%=      5-min Rain = 0
KTA1 130518Z 15007KT 24/11 A2992 RMK A01 T02400105  RH  042%=      5-min Rain = 0
KTA1 130519Z 14007KT 24/11 A2992 RMK A01 T02410105  RH  042%=      5-min Rain = 0
KTA1 130520Z 14007KT 24/11 A2992 RMK A01 T02410105  RH  042%=      5-min Rain = 0
KTA1 130521Z 14007KT 24/11 A2992 RMK A01 T02410105  RH  042%=      5-min Rain = 0
KTA1 130522Z 14007KT 24/11 A2992 RMK A01 T02420105  RH  042%=      5-min Rain = 0
KTA1 130523Z 14008KT 24/11 A2992 RMK A01 T02420105  RH  042%=      5-min Rain = 0
KTA1 130524Z 13008KT 24/11 A2992 RMK A01 T02420105  RH  042%=      5-min Rain = 0
KTA1 130525Z 13007KT 24/11 A2992 RMK A01 T02420105  RH  042%=      5-min Rain = 0
KTA1 130526Z 13007KT 24/11 A2992 RMK A01 T02410105  RH  042%=      5-min Rain = 0
KTA1 130527Z 14007KT 24/11 A2992 RMK A01 T02410105  RH  042%=      5-min Rain = 0
KTA1 130528Z 14007KT 24/11 A2992 RMK A01 T02400105  RH  042%=      5-min Rain = 0
KTA1 130529Z 14007KT 24/11 A2992 RMK A01 T02390105  RH  043%=      5-min Rain = 0
KTA1 130530Z 14007KT 24/11 A2992 RMK A01 T02390105  RH  043%=      5-min Rain = 0
KTA1 130531Z 14007KT 24/11 A2992 RMK A01 T02390105  RH  043%=      5-min Rain = 0
KTA1 130532Z 14007KT 24/11 A2992 RMK A01 T02380105  RH  043%=      5-min Rain = 0
KTA1 130533Z 14008KT 24/11 A2992 RMK A01 T02380105  RH  043%=      5-min Rain = 0
KTA1 130534Z 14007KT 24/11 A2992 RMK A01 T02380105  RH  043%=      5-min Rain = 0
KTA1 130535Z 14007KT 24/11 A2992 RMK A01 T02380105  RH  043%=      5-min Rain = 0
KTA1 130536Z 14007KT 24/11 A2992 RMK A01 T02380105  RH  043%=      5-min Rain = 0
KTA1 130537Z 14007KT 24/11 A2992 RMK A01 T02380105  RH  043%=      5-min Rain = 0
KTA1 130538Z 14006KT 24/11 A2992 RMK A01 T02380105  RH  043%=      5-min Rain = 0
KTA1 130539Z 14007KT 24/11 A2992 RMK A01 T02370105  RH  043%=      5-min Rain = 0
KTA1 130540Z 14006KT 24/11 A2992 RMK A01 T02370105  RH  043%=      5-min Rain = 0
KTA1 130541Z 14006KT 24/11 A2992 RMK A01 T02370105  RH  043%=      5-min Rain = 0
KTA1 130542Z 14006KT 24/11 A2992 RMK A01 T02370105  RH  043%=      5-min Rain = 0
KTA1 130543Z 14006KT 24/11 A2992 RMK A01 T02360105  RH  043%=      5-min Rain = 0
KTA1 130544Z 14006KT 24/11 A2992 RMK A01 T02360105  RH  043%=      5-min Rain = 0
KTA1 130545Z 14006KT 24/11 A2992 RMK A01 T02360105  RH  044%=      5-min Rain = 0
KTA1 130546Z 14005KT 24/11 A2992 RMK A01 T02350105  RH  044%=      5-min Rain = 0
KTA1 130547Z 14006KT 23/11 A2992 RMK A01 T02340105  RH  044%=      5-min Rain = 0
KTA1 130548Z 14005KT 23/11 A2992 RMK A01 T02340105  RH  044%=      5-min Rain = 0
KTA1 130549Z 14005KT 23/10 A2992 RMK A01 T02330104  RH  044%=      5-min Rain = 0
KTA1 130550Z 14005KT 23/10 A2992 RMK A01 T02320104  RH  044%=      5-min Rain = 0
KTA1 130551Z 14005KT 23/10 A2992 RMK A01 T02310104  RH  045%=      5-min Rain = 0
KTA1 130552Z 14005KT 23/10 A2992 RMK A01 T02300104  RH  045%=      5-min Rain = 0
KTA1 130553Z 14005KT 23/10 A2992 RMK A01 T02300104  RH  045%=      5-min Rain = 0
KTA1 130554Z 14005KT 23/10 A2992 RMK A01 T02290104  RH  045%=      5-min Rain = 0
KTA1 130555Z 13005KT 23/10 A2991 RMK A01 T02280104  RH  045%=      5-min Rain = 0
KTA1 130556Z 13005KT 23/10 A2991 RMK A01 T02270104  RH  045%=      5-min Rain = 0
KTA1 130557Z 13005KT 23/10 A2991 RMK A01 T02270104  RH  046%=      5-min Rain = 0
KTA1 130558Z 13005KT 23/10 A2991 RMK A01 T02260104  RH  046%=      5-min Rain = 0
KTA1 130559Z 13005KT 23/10 A2991 RMK A01 T02250104  RH  046%=      5-min Rain = 0
KTA1 130600Z 12005KT 23/10 A2991 RMK A01 T02250104  RH  046%=      5-min Rain = 0
KTA1 130601Z 12005KT 22/10 A2991 RMK A01 T02240103  RH  046%=      5-min Rain = 0
KTA1 130602Z 12005KT 22/10 A2991 RMK A01 T02240104  RH  047%=      5-min Rain = 0
KTA1 130603Z 12005KT 22/10 A2991 RMK A01 T02230104  RH  047%=      5-min Rain = 0
KTA1 130604Z 12004KT 22/10 A2991 RMK A01 T02220104  RH  047%=      5-min Rain = 0
KTA1 130605Z 12004KT 22/11 A2991 RMK A01 T02210105  RH  048%=      5-min Rain = 0
KTA1 130606Z 12004KT 22/11 A2991 RMK A01 T02200106  RH  048%=      5-min Rain = 0
KTA1 130607Z 12004KT 22/11 A2991 RMK A01 T02200107  RH  049%=      5-min Rain = 0
KTA1 130608Z 12004KT 22/11 A2991 RMK A01 T02190108  RH  049%=      5-min Rain = 0
KTA1 130609Z 12004KT 22/11 A2991 RMK A01 T02180108  RH  050%=      5-min Rain = 0
KTA1 130610Z 12004KT 22/11 A2991 RMK A01 T02180109  RH  050%=      5-min Rain = 0
KTA1 130611Z 13004KT 22/11 A2991 RMK A01 T02170109  RH  050%=      5-min Rain = 0
KTA1 130612Z 13004KT 22/11 A2991 RMK A01 T02170109  RH  050%=      5-min Rain = 0
KTA1 130613Z 13005KT 22/11 A2991 RMK A01 T02170108  RH  050%=      5-min Rain = 0
KTA1 130614Z 14005KT 22/11 A2991 RMK A01 T02170108  RH  050%=      5-min Rain = 0
KTA1 130615Z 14005KT 22/11 A2991 RMK A01 T02170108  RH  050%=      5-min Rain = 0
KTA1 130616Z 14004KT 22/11 A2991 RMK A01 T02170108  RH  050%=      5-min Rain = 0
KTA1 130617Z 13004KT 22/11 A2991 RMK A01 T02170107  RH  050%=      5-min Rain = 0
KTA1 130618Z 13004KT 22/11 A2991 RMK A01 T02170107  RH  050%=      5-min Rain = 0
KTA1 130619Z 12004KT 22/11 A2991 RMK A01 T02170107  RH  050%=      5-min Rain = 0
KTA1 130620Z 12004KT 22/11 A2991 RMK A01 T02160107  RH  050%=      5-min Rain = 0
KTA1 130621Z 12004KT 22/11 A2991 RMK A01 T02160107  RH  050%=      5-min Rain = 0
KTA1 130622Z 12004KT 22/11 A2991 RMK A01 T02160106  RH  050%=      5-min Rain = 0
KTA1 130623Z 12004KT 22/11 A2991 RMK A01 T02150106  RH  050%=      5-min Rain = 0
KTA1 130624Z 12004KT 22/11 A2991 RMK A01 T02150107  RH  050%=      5-min Rain = 0
KTA1 130625Z 12004KT 22/11 A2991 RMK A01 T02150107  RH  050%=      5-min Rain = 0
KTA1 130626Z 12004KT 22/11 A2991 RMK A01 T02150107  RH  050%=      5-min Rain = 0
KTA1 130627Z 12004KT 22/11 A2991 RMK A01 T02150107  RH  050%=      5-min Rain = 0
KTA1 130628Z 12004KT 22/11 A2991 RMK A01 T02160107  RH  050%=      5-min Rain = 0
KTA1 130629Z 12004KT 22/11 A2991 RMK A01 T02160109  RH  050%=      5-min Rain = 0
KTA1 130630Z 12004KT 22/11 A2991 RMK A01 T02160109  RH  050%=      5-min Rain = 0
KTA1 130631Z 12004KT 22/11 A2991 RMK A01 T02160109  RH  050%=      5-min Rain = 0
KTA1 130632Z 12004KT 22/11 A2991 RMK A01 T02160108  RH  050%=      5-min Rain = 0
KTA1 130633Z 12004KT 22/11 A2991 RMK A01 T02160108  RH  050%=      5-min Rain = 0
KTA1 130634Z 12004KT 22/11 A2991 RMK A01 T02160107  RH  050%=      5-min Rain = 0
KTA1 130635Z 12004KT 22/11 A2991 RMK A01 T02170107  RH  050%=      5-min Rain = 0
KTA1 130636Z 12004KT 22/11 A2991 RMK A01 T02170106  RH  049%=      5-min Rain = 0
KTA1 130637Z 11004KT 22/11 A2991 RMK A01 T02170106  RH  049%=      5-min Rain = 0
KTA1 130638Z 11004KT 22/11 A2991 RMK A01 T02180107  RH  049%=      5-min Rain = 0
KTA1 130639Z 10005KT 22/11 A2991 RMK A01 T02180107  RH  049%=      5-min Rain = 0
KTA1 130640Z 10005KT 22/11 A2991 RMK A01 T02180108  RH  050%=      5-min Rain = 0
KTA1 130641Z 11004KT 22/11 A2991 RMK A01 T02170109  RH  050%=      5-min Rain = 0
KTA1 130642Z 11004KT 22/11 A2991 RMK A01 T02170108  RH  050%=      5-min Rain = 0
KTA1 130643Z 11004KT 22/11 A2991 RMK A01 T02160108  RH  050%=      5-min Rain = 0
KTA1 130644Z 11004KT 22/11 A2991 RMK A01 T02160107  RH  050%=      5-min Rain = 0
KTA1 130645Z 11004KT 22/11 A2991 RMK A01 T02160106  RH  050%=      5-min Rain = 0
KTA1 130646Z 10004KT 22/11 A2991 RMK A01 T02160106  RH  050%=      5-min Rain = 0
KTA1 130647Z 10004KT 22/11 A2991 RMK A01 T02160106  RH  050%=      5-min Rain = 0
KTA1 130648Z 09005KT 22/11 A2991 RMK A01 T02150106  RH  050%=      5-min Rain = 0
KTA1 130649Z 09005KT 21/11 A2991 RMK A01 T02120106  RH  051%=      5-min Rain = 0
KTA1 130650Z 09005KT 21/11 A2991 RMK A01 T02100106  RH  051%=      5-min Rain = 0
KTA1 130651Z 09005KT 21/11 A2991 RMK A01 T02070105  RH  052%=      5-min Rain = 0
KTA1 130652Z 08005KT 21/10 A2991 RMK A01 T02060104  RH  052%=      5-min Rain = 0
KTA1 130653Z 08005KT 20/10 A2991 RMK A01 T02040104  RH  052%=      5-min Rain = 0
KTA1 130654Z 08006KT 20/10 A2991 RMK A01 T02030103  RH  053%=      5-min Rain = 0
KTA1 130655Z 08006KT 20/10 A2991 RMK A01 T02030103  RH  053%=      5-min Rain = 0
KTA1 130656Z 08006KT 20/10 A2991 RMK A01 T02020103  RH  053%=      5-min Rain = 0
KTA1 130657Z 08006KT 20/10 A2991 RMK A01 T02020102  RH  053%=      5-min Rain = 0
KTA1 130658Z 08006KT 20/10 A2991 RMK A01 T02010102  RH  053%=      5-min Rain = 0
KTA1 130659Z 07007KT 20/10 A2991 RMK A01 T02020102  RH  053%=      5-min Rain = 0
KTA1 130700Z 07007KT 20/10 A2991 RMK A01 T02010102  RH  053%=      5-min Rain = 0
KTA1 130701Z 06008KT 20/10 A2991 RMK A01 T02020102  RH  053%=      5-min Rain = 0
KTA1 130702Z 06008KT 20/10 A2991 RMK A01 T02020102  RH  053%=      5-min Rain = 0
KTA1 130703Z 06007KT 20/10 A2991 RMK A01 T02010102  RH  053%=      5-min Rain = 0
KTA1 130704Z 06007KT 20/10 A2991 RMK A01 T02020103  RH  053%=      5-min Rain = 0
KTA1 130705Z 07007KT 20/10 A2991 RMK A01 T02010103  RH  053%=      5-min Rain = 0
KTA1 130706Z 07008KT 20/10 A2991 RMK A01 T02020103  RH  053%=      5-min Rain = 0
KTA1 130707Z 07008KT 20/10 A2991 RMK A01 T02010103  RH  053%=      5-min Rain = 0
KTA1 130708Z 07008KT 20/10 A2991 RMK A01 T02030104  RH  053%=      5-min Rain = 0
KTA1 130709Z 07007KT 20/10 A2991 RMK A01 T02030104  RH  053%=      5-min Rain = 0
KTA1 130710Z 07008KT 20/10 A2991 RMK A01 T02040104  RH  053%=      5-min Rain = 0
KTA1 130711Z 07008KT 20/10 A2991 RMK A01 T02040104  RH  052%=      5-min Rain = 0
KTA1 130712Z 07007KT 21/10 A2991 RMK A01 T02050104  RH  052%=      5-min Rain = 0
KTA1 130713Z 07007KT 21/10 A2991 RMK A01 T02050104  RH  052%=      5-min Rain = 0
KTA1 130714Z 07008KT 21/10 A2991 RMK A01 T02050104  RH  052%=      5-min Rain = 0
KTA1 130715Z 07008KT 21/11 A2991 RMK A01 T02050105  RH  053%=      5-min Rain = 0
KTA1 130716Z 07007KT 21/11 A2991 RMK A01 T02060105  RH  052%=      5-min Rain = 0
KTA1 130717Z 07007KT 21/11 A2991 RMK A01 T02060105  RH  052%=      5-min Rain = 0
KTA1 130718Z 06006KT 21/11 A2991 RMK A01 T02070105  RH  052%=      5-min Rain = 0
KTA1 130719Z 06006KT 21/11 A2991 RMK A01 T02070105  RH  052%=      5-min Rain = 0
KTA1 130720Z 06007KT 21/11 A2991 RMK A01 T02070105  RH  052%=      5-min Rain = 0
KTA1 130721Z 06007KT 21/11 A2991 RMK A01 T02060105  RH  052%=      5-min Rain = 0
KTA1 130722Z 06007KT 21/11 A2991 RMK A01 T02060105  RH  052%=      5-min Rain = 0
KTA1 130723Z 06007KT 21/11 A2991 RMK A01 T02050105  RH  052%=      5-min Rain = 0
KTA1 130724Z 06007KT 21/11 A2991 RMK A01 T02060105  RH  052%=      5-min Rain = 0
KTA1 130725Z 06007KT 21/11 A2991 RMK A01 T02060105  RH  052%=      5-min Rain = 0
KTA1 130726Z 06007KT 21/11 A2991 RMK A01 T02060105  RH  052%=      5-min Rain = 0
KTA1 130727Z 06007KT 21/11 A2991 RMK A01 T02060105  RH  052%=      5-min Rain = 0
KTA1 130728Z 06007KT 21/10 A2991 RMK A01 T02060104  RH  052%=      5-min Rain = 0
KTA1 130729Z 06007KT 21/11 A2991 RMK A01 T02060105  RH  052%=      5-min Rain = 0
KTA1 130730Z 06007KT 21/11 A2991 RMK A01 T02070105  RH  052%=      5-min Rain = 0
KTA1 130731Z 06007KT 21/11 A2991 RMK A01 T02070105  RH  052%=      5-min Rain = 0
KTA1 130732Z 06007KT 21/11 A2991 RMK A01 T02070105  RH  052%=      5-min Rain = 0
KTA1 130733Z 06006KT 21/11 A2991 RMK A01 T02070105  RH  052%=      5-min Rain = 0
KTA1 130734Z 06005KT 21/11 A2991 RMK A01 T02070105  RH  052%=      5-min Rain = 0
KTA1 130735Z 06006KT 21/11 A2991 RMK A01 T02070105  RH  052%=      5-min Rain = 0
KTA1 130736Z 06006KT 21/11 A2991 RMK A01 T02060105  RH  052%=      5-min Rain = 0
KTA1 130737Z 06006KT 21/10 A2991 RMK A01 T02060104  RH  052%=      5-min Rain = 0
KTA1 130738Z 06006KT 21/10 A2991 RMK A01 T02060104  RH  052%=      5-min Rain = 0
KTA1 130739Z 06007KT 21/10 A2991 RMK A01 T02050104  RH  052%=      5-min Rain = 0
KTA1 130740Z 06007KT 21/10 A2991 RMK A01 T02050104  RH  052%=      5-min Rain = 0
KTA1 130741Z 06007KT 21/10 A2991 RMK A01 T02060104  RH  052%=      5-min Rain = 0
KTA1 130742Z 06007KT 21/10 A2991 RMK A01 T02050104  RH  052%=      5-min Rain = 0
KTA1 130743Z 06006KT 21/10 A2991 RMK A01 T02050104  RH  052%=      5-min Rain = 0
KTA1 130744Z 06007KT 21/10 A2991 RMK A01 T02050104  RH  052%=      5-min Rain = 0
KTA1 130745Z 06007KT 21/10 A2991 RMK A01 T02050104  RH  052%=      5-min Rain = 0
KTA1 130746Z 06007KT 21/10 A2991 RMK A01 T02050104  RH  052%=      5-min Rain = 0
KTA1 130747Z 06007KT 20/10 A2991 RMK A01 T02040104  RH  052%=      5-min Rain = 0
KTA1 130748Z 06006KT 20/10 A2991 RMK A01 T02040104  RH  052%=      5-min Rain = 0
KTA1 130749Z 06006KT 20/10 A2991 RMK A01 T02040104  RH  052%=      5-min Rain = 0
KTA1 130750Z 06005KT 20/10 A2991 RMK A01 T02040104  RH  053%=      5-min Rain = 0
KTA1 130751Z 06006KT 20/10 A2991 RMK A01 T02030103  RH  053%=      5-min Rain = 0
KTA1 130752Z 06006KT 20/10 A2991 RMK A01 T02030104  RH  053%=      5-min Rain = 0
KTA1 130753Z 06006KT 20/10 A2991 RMK A01 T02030104  RH  053%=      5-min Rain = 0
KTA1 130754Z 06007KT 20/10 A2991 RMK A01 T02030103  RH  053%=      5-min Rain = 0
KTA1 130755Z 06006KT 20/10 A2991 RMK A01 T02030104  RH  053%=      5-min Rain = 0
KTA1 130756Z 07006KT 20/10 A2991 RMK A01 T02030104  RH  053%=      5-min Rain = 0
KTA1 130757Z 06006KT 20/10 A2991 RMK A01 T02030104  RH  053%=      5-min Rain = 0
KTA1 130758Z 06006KT 20/10 A2991 RMK A01 T02030104  RH  053%=      5-min Rain = 0
KTA1 130759Z 06006KT 20/10 A2991 RMK A01 T02030104  RH  053%=      5-min Rain = 0
KTA1 130800Z 06007KT 20/10 A2991 RMK A01 T02030104  RH  053%=      5-min Rain = 0
KTA1 130801Z 06007KT 20/10 A2991 RMK A01 T02030104  RH  053%=      5-min Rain = 0
KTA1 130802Z 06007KT 20/11 A2991 RMK A01 T02030105  RH  053%=      5-min Rain = 0
KTA1 130803Z 06007KT 20/11 A2991 RMK A01 T02030105  RH  053%=      5-min Rain = 0
KTA1 130804Z 06007KT 20/11 A2991 RMK A01 T02020105  RH  054%=      5-min Rain = 0
KTA1 130805Z 06007KT 20/11 A2991 RMK A01 T02020106  RH  054%=      5-min Rain = 0
KTA1 130806Z 06007KT 20/11 A2991 RMK A01 T02030106  RH  054%=      5-min Rain = 0
KTA1 130807Z 06008KT 20/11 A2991 RMK A01 T02030106  RH  054%=      5-min Rain = 0
KTA1 130808Z 06008KT 20/11 A2991 RMK A01 T02030107  RH  054%=      5-min Rain = 0
KTA1 130809Z 06008KT 20/11 A2991 RMK A01 T02040108  RH  054%=      5-min Rain = 0
KTA1 130810Z 06008KT 20/11 A2991 RMK A01 T02040108  RH  054%=      5-min Rain = 0
KTA1 130811Z 06008KT 20/11 A2991 RMK A01 T02040108  RH  054%=      5-min Rain = 0
KTA1 130812Z 06008KT 21/11 A299 RMK A01 T02050109  RH  054%=      5-min Rain = 0
KTA1 130813Z 06008KT 21/11 A299 RMK A01 T02050109  RH  054%=      5-min Rain = 0
KTA1 130814Z 06008KT 21/11 A299 RMK A01 T02050109  RH  054%=      5-min Rain = 0
KTA1 130815Z 06008KT 20/11 A299 RMK A01 T02040109  RH  054%=      5-min Rain = 0
KTA1 130816Z 07007KT 20/11 A299 RMK A01 T02040109  RH  054%=      5-min Rain = 0
KTA1 130817Z 07007KT 21/11 A299 RMK A01 T02050110  RH  054%=      5-min Rain = 0
KTA1 130818Z 07007KT 20/11 A299 RMK A01 T02040109  RH  054%=      5-min Rain = 0
KTA1 130819Z 06007KT 21/11 A299 RMK A01 T02050110  RH  054%=      5-min Rain = 0
KTA1 130820Z 06007KT 21/11 A299 RMK A01 T02050110  RH  054%=      5-min Rain = 0
KTA1 130821Z 06007KT 21/11 A299 RMK A01 T02050110  RH  054%=      5-min Rain = 0
KTA1 130822Z 06006KT 21/11 A299 RMK A01 T02050110  RH  054%=      5-min Rain = 0
KTA1 130823Z 06006KT 21/11 A299 RMK A01 T02050110  RH  054%=      5-min Rain = 0
KTA1 130824Z 06006KT 21/11 A299 RMK A01 T02050110  RH  054%=      5-min Rain = 0
KTA1 130825Z 06006KT 21/11 A299 RMK A01 T02050111  RH  055%=      5-min Rain = 0
KTA1 130826Z 06006KT 21/11 A299 RMK A01 T02050110  RH  055%=      5-min Rain = 0
KTA1 130827Z 06006KT 20/11 A299 RMK A01 T02040110  RH  055%=      5-min Rain = 0
KTA1 130828Z 06006KT 20/11 A299 RMK A01 T02040110  RH  055%=      5-min Rain = 0
KTA1 130829Z 06006KT 20/11 A299 RMK A01 T02040110  RH  055%=      5-min Rain = 0
KTA1 130830Z 07006KT 20/11 A299 RMK A01 T02040111  RH  055%=      5-min Rain = 0
KTA1 130831Z 07006KT 20/11 A299 RMK A01 T02040111  RH  055%=      5-min Rain = 0
KTA1 130832Z 07007KT 20/11 A299 RMK A01 T02030111  RH  055%=      5-min Rain = 0
KTA1 130833Z 07007KT 20/11 A299 RMK A01 T02030111  RH  055%=      5-min Rain = 0
KTA1 130834Z 07007KT 20/11 A299 RMK A01 T02030111  RH  056%=      5-min Rain = 0
KTA1 130835Z 07007KT 20/11 A299 RMK A01 T02020111  RH  056%=      5-min Rain = 0
KTA1 130836Z 07006KT 20/11 A299 RMK A01 T02020111  RH  056%=      5-min Rain = 0
KTA1 130837Z 07006KT 20/11 A299 RMK A01 T02020111  RH  056%=      5-min Rain = 0
KTA1 130838Z 06006KT 20/11 A299 RMK A01 T02020111  RH  056%=      5-min Rain = 0
KTA1 130839Z 06006KT 20/11 A299 RMK A01 T02020111  RH  056%=      5-min Rain = 0
KTA1 130840Z 06006KT 20/11 A299 RMK A01 T02010111  RH  056%=      5-min Rain = 0
KTA1 130841Z 06005KT 20/11 A299 RMK A01 T02010111  RH  056%=      5-min Rain = 0
KTA1 130842Z 06005KT 20/11 A299 RMK A01 T02000110  RH  056%=      5-min Rain = 0
KTA1 130843Z 06005KT 20/11 A299 RMK A01 T02000110  RH  056%=      5-min Rain = 0
KTA1 130844Z 06005KT 20/11 A299 RMK A01 T02000111  RH  056%=      5-min Rain = 0
KTA1 130845Z 07005KT 20/11 A299 RMK A01 T01990110  RH  056%=      5-min Rain = 0
KTA1 130846Z 07006KT 20/11 A299 RMK A01 T01990110  RH  057%=      5-min Rain = 0
KTA1 130847Z 07006KT 20/11 A2989 RMK A01 T01990111  RH  057%=      5-min Rain = 0
KTA1 130848Z 07006KT 20/11 A2989 RMK A01 T01990111  RH  057%=      5-min Rain = 0
KTA1 130849Z 07006KT 20/11 A2989 RMK A01 T01990111  RH  057%=      5-min Rain = 0
KTA1 130850Z 07006KT 20/11 A2989 RMK A01 T01990111  RH  057%=      5-min Rain = 0
KTA1 130851Z 07006KT 20/11 A2989 RMK A01 T01990111  RH  057%=      5-min Rain = 0
KTA1 130852Z 07006KT 20/11 A2989 RMK A01 T01990111  RH  057%=      5-min Rain = 0
KTA1 130853Z 07006KT 20/11 A2989 RMK A01 T01990111  RH  057%=      5-min Rain = 0
KTA1 130854Z 07006KT 20/11 A2989 RMK A01 T01990111  RH  057%=      5-min Rain = 0
KTA1 130855Z 06006KT 20/11 A2989 RMK A01 T01980111  RH  057%=      5-min Rain = 0
KTA1 130856Z 06006KT 20/11 A2989 RMK A01 T01980110  RH  057%=      5-min Rain = 0
KTA1 130857Z 06006KT 20/11 A299 RMK A01 T01970110  RH  057%=      5-min Rain = 0
KTA1 130858Z 05006KT 20/11 A299 RMK A01 T01960110  RH  057%=      5-min Rain = 0
KTA1 130859Z 06006KT 20/11 A299 RMK A01 T01960110  RH  058%=      5-min Rain = 0
KTA1 130900Z 06006KT 20/11 A299 RMK A01 T01960110  RH  058%=      5-min Rain = 0
KTA1 130901Z 06006KT 20/11 A299 RMK A01 T01950110  RH  058%=      5-min Rain = 0
KTA1 130902Z 06006KT 20/11 A299 RMK A01 T01950110  RH  058%=      5-min Rain = 0
KTA1 130903Z 06006KT 20/11 A299 RMK A01 T01950110  RH  058%=      5-min Rain = 0
KTA1 130904Z 06006KT 20/11 A2989 RMK A01 T01950110  RH  058%=      5-min Rain = 0
KTA1 130905Z 06006KT 20/11 A2989 RMK A01 T01950110  RH  058%=      5-min Rain = 0
KTA1 130906Z 06006KT 20/11 A2989 RMK A01 T01950110  RH  058%=      5-min Rain = 0
KTA1 130907Z 07006KT 20/11 A2989 RMK A01 T01950110  RH  058%=      5-min Rain = 0
KTA1 130908Z 07006KT 20/11 A2989 RMK A01 T01950110  RH  058%=      5-min Rain = 0
KTA1 130909Z 07005KT 20/11 A2989 RMK A01 T01950110  RH  058%=      5-min Rain = 0
KTA1 130910Z 07006KT 20/11 A2989 RMK A01 T01950110  RH  058%=      5-min Rain = 0
KTA1 130911Z 07005KT 19/11 A2989 RMK A01 T01940110  RH  058%=      5-min Rain = 0
KTA1 130912Z 07005KT 19/11 A2989 RMK A01 T01940110  RH  058%=      5-min Rain = 0
KTA1 130913Z 07005KT 19/11 A2989 RMK A01 T01940110  RH  058%=      5-min Rain = 0
KTA1 130914Z 07006KT 19/11 A2989 RMK A01 T01940110  RH  059%=      5-min Rain = 0
KTA1 130915Z 07006KT 19/11 A2989 RMK A01 T01940111  RH  059%=      5-min Rain = 0
KTA1 130916Z 08006KT 19/11 A2989 RMK A01 T01940111  RH  059%=      5-min Rain = 0
KTA1 130917Z 08006KT 19/11 A2989 RMK A01 T01940110  RH  059%=      5-min Rain = 0
KTA1 130918Z 08006KT 19/11 A2989 RMK A01 T01940111  RH  058%=      5-min Rain = 0
KTA1 130919Z 08006KT 20/11 A2989 RMK A01 T01950111  RH  058%=      5-min Rain = 0
KTA1 130920Z 08006KT 20/11 A2989 RMK A01 T01960111  RH  058%=      5-min Rain = 0
KTA1 130921Z 08006KT 20/11 A2989 RMK A01 T01960111  RH  058%=      5-min Rain = 0
KTA1 130922Z 08007KT 20/11 A2989 RMK A01 T01960111  RH  058%=      5-min Rain = 0
KTA1 130923Z 08006KT 20/11 A2989 RMK A01 T01960111  RH  058%=      5-min Rain = 0
KTA1 130924Z 08006KT 20/11 A2989 RMK A01 T01960111  RH  058%=      5-min Rain = 0
KTA1 130925Z 08006KT 20/11 A2989 RMK A01 T01960111  RH  058%=      5-min Rain = 0
KTA1 130926Z 08006KT 20/11 A2989 RMK A01 T01970111  RH  058%=      5-min Rain = 0
KTA1 130927Z 08006KT 20/11 A2989 RMK A01 T01970111  RH  058%=      5-min Rain = 0
KTA1 130928Z 08006KT 20/11 A2989 RMK A01 T01970111  RH  058%=      5-min Rain = 0
KTA1 130929Z 08006KT 20/11 A2989 RMK A01 T01970111  RH  058%=      5-min Rain = 0
KTA1 130930Z 08006KT 20/11 A2989 RMK A01 T01970111  RH  058%=      5-min Rain = 0
KTA1 130931Z 08006KT 20/11 A2989 RMK A01 T01970111  RH  057%=      5-min Rain = 0
KTA1 130932Z 08006KT 20/11 A2989 RMK A01 T01970111  RH  057%=      5-min Rain = 0
KTA1 130933Z 08006KT 20/11 A2989 RMK A01 T01970110  RH  057%=      5-min Rain = 0
KTA1 130934Z 08006KT 20/11 A2989 RMK A01 T01970110  RH  057%=      5-min Rain = 0
KTA1 130935Z 08007KT 20/11 A2989 RMK A01 T01970110  RH  057%=      5-min Rain = 0
KTA1 130936Z 08006KT 20/11 A2989 RMK A01 T01970110  RH  057%=      5-min Rain = 0
KTA1 130937Z 08006KT 20/11 A2989 RMK A01 T01970110  RH  057%=      5-min Rain = 0
KTA1 130938Z 08006KT 20/11 A2989 RMK A01 T01970110  RH  057%=      5-min Rain = 0
KTA1 130939Z 08006KT 20/11 A2989 RMK A01 T01970110  RH  057%=      5-min Rain = 0
KTA1 130940Z 08006KT 20/11 A2989 RMK A01 T01970110  RH  057%=      5-min Rain = 0
KTA1 130941Z 08005KT 20/11 A2989 RMK A01 T01970110  RH  057%=      5-min Rain = 0
KTA1 130942Z 08006KT 20/11 A2989 RMK A01 T01980111  RH  057%=      5-min Rain = 0
KTA1 130943Z 09006KT 20/11 A2989 RMK A01 T01980111  RH  057%=      5-min Rain = 0
KTA1 130944Z 08006KT 20/11 A2989 RMK A01 T01980112  RH  057%=      5-min Rain = 0
KTA1 130945Z 09006KT 20/11 A2989 RMK A01 T01980111  RH  057%=      5-min Rain = 0
KTA1 130946Z 09005KT 20/11 A2989 RMK A01 T01980112  RH  057%=      5-min Rain = 0
KTA1 130947Z 09006KT 20/11 A2989 RMK A01 T01990112  RH  057%=      5-min Rain = 0
KTA1 130948Z 09005KT 20/11 A2989 RMK A01 T01990112  RH  057%=      5-min Rain = 0
KTA1 130949Z 09005KT 20/11 A2989 RMK A01 T02000112  RH  057%=      5-min Rain = 0
KTA1 130950Z 10005KT 20/11 A2989 RMK A01 T02000112  RH  057%=      5-min Rain = 0
KTA1 130951Z 10005KT 20/11 A2989 RMK A01 T02010112  RH  057%=      5-min Rain = 0
KTA1 130952Z 10004KT 20/11 A2989 RMK A01 T02010112  RH  056%=      5-min Rain = 0
KTA1 130953Z 10005KT 20/11 A2989 RMK A01 T02020112  RH  056%=      5-min Rain = 0
KTA1 130954Z 09005KT 20/11 A2989 RMK A01 T02020112  RH  056%=      5-min Rain = 0
KTA1 130955Z 09004KT 20/11 A2989 RMK A01 T02020112  RH  056%=      5-min Rain = 0
KTA1 130956Z 09004KT 20/11 A2989 RMK A01 T02030112  RH  056%=      5-min Rain = 0
KTA1 130957Z 09005KT 20/11 A2989 RMK A01 T02030112  RH  056%=      5-min Rain = 0
KTA1 130958Z 08004KT 20/11 A2989 RMK A01 T02030111  RH  056%=      5-min Rain = 0
KTA1 130959Z 08005KT 20/11 A2989 RMK A01 T02030112  RH  056%=      5-min Rain = 0
KTA1 131000Z 08005KT 20/11 A2989 RMK A01 T02030111  RH  055%=      5-min Rain = 0
KTA1 131001Z 08006KT 20/11 A2989 RMK A01 T02040112  RH  055%=      5-min Rain = 0
KTA1 131002Z 08006KT 20/11 A2989 RMK A01 T02040112  RH  055%=      5-min Rain = 0
KTA1 131003Z 08006KT 20/11 A2989 RMK A01 T02040112  RH  055%=      5-min Rain = 0
KTA1 131004Z 08006KT 21/11 A2989 RMK A01 T02050112  RH  055%=      5-min Rain = 0
KTA1 131005Z 08005KT 20/11 A2989 RMK A01 T02040112  RH  055%=      5-min Rain = 0
KTA1 131006Z 09006KT 21/11 A2989 RMK A01 T02050111  RH  055%=      5-min Rain = 0
KTA1 131007Z 09006KT 21/11 A2989 RMK A01 T02050111  RH  055%=      5-min Rain = 0
KTA1 131008Z 09006KT 21/11 A2989 RMK A01 T02050111  RH  055%=      5-min Rain = 0
KTA1 131009Z 09006KT 21/11 A2989 RMK A01 T02050111  RH  055%=      5-min Rain = 0
KTA1 131010Z 09007KT 21/11 A2989 RMK A01 T02050111  RH  055%=      5-min Rain = 0
KTA1 131011Z 09007KT 21/11 A2988 RMK A01 T02050111  RH  055%=      5-min Rain = 0
KTA1 131012Z 09006KT 21/11 A2988 RMK A01 T02050111  RH  055%=      5-min Rain = 0
KTA1 131013Z 10007KT 21/11 A2989 RMK A01 T02050111  RH  055%=      5-min Rain = 0
KTA1 131014Z 10007KT 21/11 A2988 RMK A01 T02060111  RH  054%=      5-min Rain = 0
KTA1 131015Z 10006KT 21/11 A2988 RMK A01 T02060110  RH  054%=      5-min Rain = 0
KTA1 131016Z 10006KT 21/11 A2988 RMK A01 T02060111  RH  054%=      5-min Rain = 0
KTA1 131017Z 10006KT 21/11 A2989 RMK A01 T02070111  RH  054%=      5-min Rain = 0
KTA1 131018Z 10006KT 21/11 A2989 RMK A01 T02060111  RH  054%=      5-min Rain = 0
KTA1 131019Z 10006KT 21/11 A2989 RMK A01 T02060111  RH  054%=      5-min Rain = 0
KTA1 131020Z 10005KT 21/11 A2989 RMK A01 T02060111  RH  054%=      5-min Rain = 0
KTA1 131021Z 10005KT 21/11 A2989 RMK A01 T02050111  RH  054%=      5-min Rain = 0
KTA1 131022Z 10004KT 21/11 A2989 RMK A01 T02050111  RH  054%=      5-min Rain = 0
KTA1 131023Z 10005KT 21/11 A2989 RMK A01 T02060111  RH  054%=      5-min Rain = 0
KTA1 131024Z 10005KT 21/11 A2989 RMK A01 T02060110  RH  054%=      5-min Rain = 0
KTA1 131025Z 10005KT 21/11 A2989 RMK A01 T02060110  RH  054%=      5-min Rain = 0
KTA1 131026Z 10005KT 21/11 A2989 RMK A01 T02060110  RH  054%=      5-min Rain = 0
KTA1 131027Z 09005KT 21/11 A2989 RMK A01 T02060110  RH  054%=      5-min Rain = 0
KTA1 131028Z 10005KT 21/11 A2989 RMK A01 T02070110  RH  054%=      5-min Rain = 0
KTA1 131029Z 10005KT 21/11 A2989 RMK A01 T02060110  RH  054%=      5-min Rain = 0
KTA1 131030Z 09005KT 21/11 A2989 RMK A01 T02060110  RH  054%=      5-min Rain = 0
KTA1 131031Z 10005KT 21/11 A2989 RMK A01 T02070110  RH  054%=      5-min Rain = 0
KTA1 131032Z 10005KT 21/11 A2989 RMK A01 T02060110  RH  054%=      5-min Rain = 0
KTA1 131033Z 10004KT 21/11 A2989 RMK A01 T02070110  RH  054%=      5-min Rain = 0
KTA1 131034Z 10004KT 21/11 A2989 RMK A01 T02070110  RH  054%=      5-min Rain = 0
KTA1 131035Z 10005KT 21/11 A2989 RMK A01 T02070110  RH  054%=      5-min Rain = 0
KTA1 131036Z 10005KT 21/11 A2989 RMK A01 T02070110  RH  053%=      5-min Rain = 0
KTA1 131037Z 10005KT 21/11 A2989 RMK A01 T02070110  RH  053%=      5-min Rain = 0
KTA1 131038Z 09005KT 21/11 A2989 RMK A01 T02070110  RH  053%=      5-min Rain = 0
KTA1 131039Z 09005KT 21/11 A2989 RMK A01 T02070109  RH  053%=      5-min Rain = 0
KTA1 131040Z 09005KT 21/11 A2989 RMK A01 T02070109  RH  053%=      5-min Rain = 0
KTA1 131041Z 09005KT 21/11 A2989 RMK A01 T02070109  RH  053%=      5-min Rain = 0
KTA1 131042Z 09005KT 21/11 A2989 RMK A01 T02070109  RH  053%=      5-min Rain = 0
KTA1 131043Z 09006KT 21/11 A2989 RMK A01 T02070108  RH  053%=      5-min Rain = 0
KTA1 131044Z 09005KT 21/11 A2989 RMK A01 T02070108  RH  053%=      5-min Rain = 0
KTA1 131045Z 09005KT 21/11 A2989 RMK A01 T02070109  RH  053%=      5-min Rain = 0
KTA1 131046Z 09005KT 21/11 A2989 RMK A01 T02060109  RH  054%=      5-min Rain = 0
KTA1 131047Z 09005KT 21/11 A2989 RMK A01 T02060110  RH  054%=      5-min Rain = 0
KTA1 131048Z 10005KT 21/11 A2989 RMK A01 T02050109  RH  054%=      5-min Rain = 0
KTA1 131049Z 10004KT 21/11 A2989 RMK A01 T02050110  RH  054%=      5-min Rain = 0
KTA1 131050Z 09004KT 20/11 A2989 RMK A01 T02040109  RH  054%=      5-min Rain = 0
KTA1 131051Z 09004KT 20/11 A2989 RMK A01 T02040109  RH  055%=      5-min Rain = 0
KTA1 131052Z 09005KT 20/11 A2989 RMK A01 T02030109  RH  055%=      5-min Rain = 0
KTA1 131053Z 09005KT 20/11 A2989 RMK A01 T02030109  RH  055%=      5-min Rain = 0
KTA1 131054Z 09005KT 20/11 A2989 RMK A01 T02030109  RH  055%=      5-min Rain = 0
KTA1 131055Z 09005KT 20/11 A2989 RMK A01 T02030110  RH  055%=      5-min Rain = 0
KTA1 131056Z 09005KT 20/11 A2989 RMK A01 T02020109  RH  055%=      5-min Rain = 0
KTA1 131057Z 09005KT 20/11 A2989 RMK A01 T02020109  RH  055%=      5-min Rain = 0
KTA1 131058Z 09005KT 20/11 A2989 RMK A01 T02020109  RH  055%=      5-min Rain = 0
KTA1 131059Z 09005KT 20/11 A2989 RMK A01 T02020109  RH  055%=      5-min Rain = 0
KTA1 131100Z 09005KT 20/11 A2989 RMK A01 T02020109  RH  055%=      5-min Rain = 0
KTA1 131101Z 09005KT 20/11 A2989 RMK A01 T02020109  RH  055%=      5-min Rain = 0
KTA1 131102Z 09005KT 20/11 A2989 RMK A01 T02010109  RH  055%=      5-min Rain = 0
KTA1 131103Z 09005KT 20/11 A2989 RMK A01 T02010108  RH  055%=      5-min Rain = 0
KTA1 131104Z 10005KT 20/11 A2989 RMK A01 T02010109  RH  055%=      5-min Rain = 0
KTA1 131105Z 10005KT 20/11 A2989 RMK A01 T02010109  RH  055%=      5-min Rain = 0
KTA1 131106Z 10004KT 20/11 A2989 RMK A01 T02000109  RH  055%=      5-min Rain = 0
KTA1 131107Z 10005KT 20/11 A2989 RMK A01 T02000109  RH  056%=      5-min Rain = 0
KTA1 131108Z 10005KT 20/11 A2989 RMK A01 T01990108  RH  056%=      5-min Rain = 0
KTA1 131109Z 10005KT 20/11 A2989 RMK A01 T01990108  RH  056%=      5-min Rain = 0
KTA1 131110Z 10005KT 20/11 A2989 RMK A01 T01990108  RH  056%=      5-min Rain = 0
KTA1 131111Z 10006KT 20/11 A2989 RMK A01 T01990108  RH  056%=      5-min Rain = 0
KTA1 131112Z 10006KT 20/11 A2989 RMK A01 T01990109  RH  056%=      5-min Rain = 0
KTA1 131113Z 11006KT 20/11 A2989 RMK A01 T01990109  RH  056%=      5-min Rain = 0
KTA1 131114Z 10006KT 20/11 A2989 RMK A01 T01980109  RH  056%=      5-min Rain = 0
KTA1 131115Z 10007KT 20/11 A2989 RMK A01 T01980109  RH  056%=      5-min Rain = 0
KTA1 131116Z 10006KT 20/11 A2989 RMK A01 T01980109  RH  056%=      5-min Rain = 0
KTA1 131117Z 10006KT 20/11 A2989 RMK A01 T01980109  RH  057%=      5-min Rain = 0
KTA1 131118Z 10007KT 20/11 A2989 RMK A01 T01970109  RH  057%=      5-min Rain = 0
KTA1 131119Z 10006KT 20/11 A2989 RMK A01 T01970109  RH  057%=      5-min Rain = 0
KTA1 131120Z 10006KT 20/11 A2989 RMK A01 T01970109  RH  057%=      5-min Rain = 0
KTA1 131121Z 10007KT 20/11 A2989 RMK A01 T01970109  RH  057%=      5-min Rain = 0
KTA1 131122Z 10007KT 20/11 A2989 RMK A01 T01970109  RH  057%=      5-min Rain = 0
KTA1 131123Z 10007KT 20/11 A2989 RMK A01 T01970109  RH  057%=      5-min Rain = 0
KTA1 131124Z 10006KT 20/11 A2989 RMK A01 T01970109  RH  057%=      5-min Rain = 0
KTA1 131125Z 10006KT 20/11 A2989 RMK A01 T01970109  RH  057%=      5-min Rain = 0
KTA1 131126Z 09007KT 20/11 A2989 RMK A01 T01970109  RH  057%=      5-min Rain = 0
KTA1 131127Z 09007KT 20/11 A2989 RMK A01 T01970109  RH  057%=      5-min Rain = 0
KTA1 131128Z 09006KT 20/11 A2989 RMK A01 T01970109  RH  056%=      5-min Rain = 0
KTA1 131129Z 09006KT 20/11 A2989 RMK A01 T01980109  RH  056%=      5-min Rain = 0
KTA1 131130Z 10007KT 20/11 A2989 RMK A01 T01980109  RH  056%=      5-min Rain = 0
KTA1 131131Z 10006KT 20/11 A2989 RMK A01 T01980109  RH  056%=      5-min Rain = 0
KTA1 131132Z 10007KT 20/11 A2989 RMK A01 T01980109  RH  056%=      5-min Rain = 0
KTA1 131133Z 10007KT 20/11 A2989 RMK A01 T01980109  RH  056%=      5-min Rain = 0
KTA1 131134Z 10006KT 20/11 A2989 RMK A01 T01980109  RH  056%=      5-min Rain = 0
KTA1 131135Z 10007KT 20/11 A2989 RMK A01 T01980109  RH  056%=      5-min Rain = 0
KTA1 131136Z 10007KT 20/11 A2989 RMK A01 T01980109  RH  057%=      5-min Rain = 0
KTA1 131137Z 10007KT 20/11 A2989 RMK A01 T01980109  RH  056%=      5-min Rain = 0
KTA1 131138Z 10006KT 20/11 A2989 RMK A01 T01980108  RH  056%=      5-min Rain = 0
KTA1 131139Z 11006KT 20/11 A2989 RMK A01 T01980108  RH  056%=      5-min Rain = 0
KTA1 131140Z 10007KT 20/11 A2989 RMK A01 T01990108  RH  056%=      5-min Rain = 0
KTA1 131141Z 10006KT 20/11 A2989 RMK A01 T01990108  RH  056%=      5-min Rain = 0
KTA1 131142Z 10006KT 20/11 A2989 RMK A01 T01990108  RH  056%=      5-min Rain = 0
KTA1 131143Z 10006KT 20/11 A2989 RMK A01 T01990108  RH  056%=      5-min Rain = 0
KTA1 131144Z 10006KT 20/11 A2989 RMK A01 T02000108  RH  055%=      5-min Rain = 0
KTA1 131145Z 10006KT 20/11 A2989 RMK A01 T02000108  RH  055%=      5-min Rain = 0
KTA1 131146Z 11006KT 20/11 A2989 RMK A01 T02000108  RH  055%=      5-min Rain = 0
KTA1 131147Z 10006KT 20/11 A2989 RMK A01 T02000108  RH  055%=      5-min Rain = 0
KTA1 131148Z 10006KT 20/11 A2989 RMK A01 T02000108  RH  056%=      5-min Rain = 0
KTA1 131149Z 10006KT 20/11 A2989 RMK A01 T02000108  RH  056%=      5-min Rain = 0
KTA1 131150Z 10006KT 20/11 A2989 RMK A01 T02000108  RH  056%=      5-min Rain = 0
KTA1 131151Z 10006KT 20/11 A2989 RMK A01 T01990108  RH  056%=      5-min Rain = 0
KTA1 131152Z 10005KT 20/11 A2989 RMK A01 T02000109  RH  056%=      5-min Rain = 0
KTA1 131153Z 10006KT 20/11 A2989 RMK A01 T01990109  RH  056%=      5-min Rain = 0
KTA1 131154Z 11006KT 20/11 A2989 RMK A01 T01990108  RH  056%=      5-min Rain = 0
KTA1 131155Z 11006KT 20/11 A2989 RMK A01 T01990108  RH  056%=      5-min Rain = 0
KTA1 131156Z 11005KT 20/11 A2989 RMK A01 T01990108  RH  056%=      5-min Rain = 0
KTA1 131157Z 11005KT 20/11 A2989 RMK A01 T01990108  RH  056%=      5-min Rain = 0
KTA1 131158Z 11005KT 20/11 A2989 RMK A01 T01990108  RH  056%=      5-min Rain = 0
KTA1 131159Z 11005KT 20/11 A2989 RMK A01 T01990108  RH  056%=      5-min Rain = 0
KTA1 131200Z 11005KT 20/11 A2989 RMK A01 T01990107  RH  055%=      5-min Rain = 0
KTA1 131201Z 11004KT 20/11 A2989 RMK A01 T01990107  RH  055%=      5-min Rain = 0
KTA1 131202Z 11005KT 20/11 A2989 RMK A01 T01990107  RH  055%=      5-min Rain = 0
KTA1 131203Z 11005KT 20/11 A2989 RMK A01 T02000107  RH  055%=      5-min Rain = 0
KTA1 131204Z 11005KT 20/11 A2989 RMK A01 T02000107  RH  055%=      5-min Rain = 0
KTA1 131205Z 11005KT 20/11 A2989 RMK A01 T02000107  RH  055%=      5-min Rain = 0
KTA1 131206Z 11004KT 20/11 A2989 RMK A01 T02000107  RH  055%=      5-min Rain = 0
KTA1 131207Z 11004KT 20/11 A2989 RMK A01 T02000107  RH  055%=      5-min Rain = 0
KTA1 131208Z 11004KT 20/11 A2989 RMK A01 T02000107  RH  055%=      5-min Rain = 0
KTA1 131209Z 10004KT 20/11 A2989 RMK A01 T02000107  RH  055%=      5-min Rain = 0
KTA1 131210Z 10004KT 20/11 A2989 RMK A01 T02000108  RH  055%=      5-min Rain = 0
KTA1 131211Z 10004KT 20/11 A2989 RMK A01 T02010108  RH  055%=      5-min Rain = 0
KTA1 131212Z 10004KT 20/11 A2989 RMK A01 T02000108  RH  055%=      5-min Rain = 0
KTA1 131213Z 09005KT 20/11 A2989 RMK A01 T02000108  RH  055%=      5-min Rain = 0
KTA1 131214Z 09005KT 20/11 A2989 RMK A01 T02010109  RH  055%=      5-min Rain = 0
KTA1 131215Z 10005KT 20/11 A2989 RMK A01 T02010109  RH  056%=      5-min Rain = 0
KTA1 131216Z 10005KT 20/11 A2989 RMK A01 T02000109  RH  056%=      5-min Rain = 0
KTA1 131217Z 10004KT 20/11 A2989 RMK A01 T02010110  RH  056%=      5-min Rain = 0
KTA1 131218Z 10004KT 20/11 A2989 RMK A01 T02000110  RH  056%=      5-min Rain = 0
KTA1 131219Z 11004KT 20/11 A2989 RMK A01 T02010111  RH  056%=      5-min Rain = 0
KTA1 131220Z 11004KT 20/11 A2989 RMK A01 T02000111  RH  056%=      5-min Rain = 0
KTA1 131221Z 11005KT 20/11 A2989 RMK A01 T02010110  RH  056%=      5-min Rain = 0
KTA1 131222Z 11005KT 20/11 A2989 RMK A01 T02010110  RH  056%=      5-min Rain = 0
KTA1 131223Z 11005KT 20/11 A2989 RMK A01 T02010110  RH  056%=      5-min Rain = 0
KTA1 131224Z 11005KT 20/11 A2989 RMK A01 T02000110  RH  056%=      5-min Rain = 0
KTA1 131225Z 11005KT 20/11 A2989 RMK A01 T02000109  RH  056%=      5-min Rain = 0
KTA1 131226Z 11005KT 20/11 A2989 RMK A01 T02000109  RH  056%=      5-min Rain = 0
KTA1 131227Z 11005KT 20/11 A2989 RMK A01 T02010109  RH  055%=      5-min Rain = 0
KTA1 131228Z 12005KT 20/11 A2989 RMK A01 T02010108  RH  055%=      5-min Rain = 0
KTA1 131229Z 11005KT 20/11 A2989 RMK A01 T02020108  RH  055%=      5-min Rain = 0
KTA1 131230Z 11005KT 20/11 A2989 RMK A01 T02020108  RH  055%=      5-min Rain = 0
KTA1 131231Z 11005KT 20/11 A2989 RMK A01 T02020107  RH  054%=      5-min Rain = 0
KTA1 131232Z 11006KT 20/11 A2989 RMK A01 T02030107  RH  054%=      5-min Rain = 0
KTA1 131233Z 11006KT 20/11 A2989 RMK A01 T02030107  RH  054%=      5-min Rain = 0
KTA1 131234Z 11006KT 20/11 A2989 RMK A01 T02030107  RH  054%=      5-min Rain = 0
KTA1 131235Z 11006KT 20/11 A2989 RMK A01 T02030107  RH  054%=      5-min Rain = 0
KTA1 131236Z 11005KT 20/11 A2989 RMK A01 T02030107  RH  054%=      5-min Rain = 0
KTA1 131237Z 11005KT 20/11 A2989 RMK A01 T02030107  RH  054%=      5-min Rain = 0
KTA1 131238Z 12005KT 20/11 A2989 RMK A01 T02030107  RH  054%=      5-min Rain = 0
KTA1 131239Z 12005KT 20/11 A2989 RMK A01 T02030107  RH  054%=      5-min Rain = 0
KTA1 131240Z 12005KT 20/11 A2989 RMK A01 T02030107  RH  054%=      5-min Rain = 0
KTA1 131241Z 12005KT 20/11 A2989 RMK A01 T02030107  RH  054%=      5-min Rain = 0
KTA1 131242Z 12005KT 20/11 A2989 RMK A01 T02030107  RH  054%=      5-min Rain = 0
KTA1 131243Z 13006KT 20/11 A2989 RMK A01 T02030107  RH  054%=      5-min Rain = 0
KTA1 131244Z 13006KT 20/11 A2989 RMK A01 T02030107  RH  054%=      5-min Rain = 0
KTA1 131245Z 13006KT 20/11 A2989 RMK A01 T02030107  RH  054%=      5-min Rain = 0
KTA1 131246Z 13005KT 20/11 A2989 RMK A01 T02030107  RH  054%=      5-min Rain = 0
KTA1 131247Z 13006KT 20/11 A2989 RMK A01 T02030107  RH  054%=      5-min Rain = 0
KTA1 131248Z 13006KT 20/11 A2989 RMK A01 T02030107  RH  054%=      5-min Rain = 0
KTA1 131249Z 14005KT 20/11 A2989 RMK A01 T02030108  RH  054%=      5-min Rain = 0
KTA1 131250Z 14005KT 20/11 A2989 RMK A01 T02030108  RH  054%=      5-min Rain = 0
KTA1 131251Z 14005KT 20/11 A2989 RMK A01 T02030108  RH  054%=      5-min Rain = 0
KTA1 131252Z 14006KT 20/11 A2989 RMK A01 T02030109  RH  054%=      5-min Rain = 0
KTA1 131253Z 14006KT 20/11 A2989 RMK A01 T02030108  RH  054%=      5-min Rain = 0
KTA1 131254Z 14006KT 20/11 A2989 RMK A01 T02030108  RH  054%=      5-min Rain = 0
KTA1 131255Z 14006KT 20/11 A2989 RMK A01 T02030108  RH  054%=      5-min Rain = 0
KTA1 131256Z 14005KT 20/11 A2989 RMK A01 T02030107  RH  054%=      5-min Rain = 0
KTA1 131257Z 15005KT 20/11 A2989 RMK A01 T02040108  RH  054%=      5-min Rain = 0
KTA1 131258Z 15005KT 20/11 A299 RMK A01 T02040108  RH  054%=      5-min Rain = 0
KTA1 131259Z 15005KT 20/11 A299 RMK A01 T02040107  RH  054%=      5-min Rain = 0
KTA1 131300Z 14006KT 21/11 A299 RMK A01 T02050107  RH  053%=      5-min Rain = 0
KTA1 131301Z 14005KT 21/11 A299 RMK A01 T02050107  RH  053%=      5-min Rain = 0
KTA1 131302Z 13005KT 21/11 A299 RMK A01 T02060107  RH  053%=      5-min Rain = 0
KTA1 131303Z 13005KT 21/11 A299 RMK A01 T02060107  RH  053%=      5-min Rain = 0
KTA1 131304Z 13005KT 21/11 A299 RMK A01 T02070107  RH  053%=      5-min Rain = 0
KTA1 131305Z 13005KT 21/11 A299 RMK A01 T02070107  RH  052%=      5-min Rain = 0
KTA1 131306Z 12005KT 21/11 A299 RMK A01 T02080107  RH  052%=      5-min Rain = 0
KTA1 131307Z 12005KT 21/11 A299 RMK A01 T02080107  RH  052%=      5-min Rain = 0
KTA1 131308Z 11004KT 21/11 A299 RMK A01 T02080106  RH  052%=      5-min Rain = 0
KTA1 131309Z 11004KT 21/11 A299 RMK A01 T02080107  RH  052%=      5-min Rain = 0
KTA1 131310Z 10004KT 21/11 A299 RMK A01 T02080107  RH  052%=      5-min Rain = 0
KTA1 131311Z 09004KT 21/11 A299 RMK A01 T02090107  RH  052%=      5-min Rain = 0
KTA1 131312Z 08004KT 21/11 A299 RMK A01 T02090107  RH  052%=      5-min Rain = 0
KTA1 131313Z 08004KT 21/11 A299 RMK A01 T02090108  RH  052%=      5-min Rain = 0
KTA1 131314Z 08003KT 21/11 A299 RMK A01 T02090111  RH  053%=      5-min Rain = 0
KTA1 131315Z 08004KT 21/11 A299 RMK A01 T02080112  RH  054%=      5-min Rain = 0
KTA1 131316Z 09004KT 21/11 A299 RMK A01 T02070113  RH  055%=      5-min Rain = 0
KTA1 131317Z 09003KT 21/11 A299 RMK A01 T02060113  RH  055%=      5-min Rain = 0
KTA1 131318Z 10004KT 21/11 A299 RMK A01 T02060112  RH  055%=      5-min Rain = 0
KTA1 131319Z 11004KT 21/11 A299 RMK A01 T02070112  RH  055%=      5-min Rain = 0
KTA1 131320Z 11004KT 21/11 A2991 RMK A01 T02060111  RH  054%=      5-min Rain = 0
KTA1 131321Z 12004KT 21/11 A2991 RMK A01 T02070112  RH  054%=      5-min Rain = 0
KTA1 131322Z 11004KT 21/11 A2991 RMK A01 T02070111  RH  054%=      5-min Rain = 0
KTA1 131323Z 10003KT 21/11 A2991 RMK A01 T02070111  RH  054%=      5-min Rain = 0
KTA1 131324Z 08003KT 21/11 A2991 RMK A01 T02080112  RH  054%=      5-min Rain = 0
KTA1 131325Z 07004KT 21/11 A2991 RMK A01 T02080112  RH  054%=      5-min Rain = 0
KTA1 131326Z 06005KT 21/11 A2991 RMK A01 T02080112  RH  054%=      5-min Rain = 0
KTA1 131327Z 05005KT 21/11 A2991 RMK A01 T02090112  RH  054%=      5-min Rain = 0
KTA1 131328Z 05006KT 21/11 A2991 RMK A01 T02090111  RH  054%=      5-min Rain = 0
KTA1 131329Z 06005KT 21/11 A2991 RMK A01 T02090111  RH  053%=      5-min Rain = 0
KTA1 131330Z 07005KT 21/11 A2991 RMK A01 T02090110  RH  053%=      5-min Rain = 0
KTA1 131331Z 08004KT 21/11 A2991 RMK A01 T02100109  RH  053%=      5-min Rain = 0
KTA1 131332Z 09004KT 21/11 A2991 RMK A01 T02100109  RH  052%=      5-min Rain = 0
KTA1 131333Z 10003KT 21/11 A2991 RMK A01 T02110109  RH  052%=      5-min Rain = 0
KTA1 131334Z 11003KT 21/11 A2991 RMK A01 T02110109  RH  052%=      5-min Rain = 0
KTA1 131335Z 10003KT 21/11 A2991 RMK A01 T02120110  RH  052%=      5-min Rain = 0
KTA1 131336Z 08003KT 21/11 A2991 RMK A01 T02120110  RH  052%=      5-min Rain = 0
KTA1 131337Z 07004KT 21/11 A2991 RMK A01 T02120110  RH  052%=      5-min Rain = 0
KTA1 131338Z 07005KT 21/11 A2991 RMK A01 T02130110  RH  052%=      5-min Rain = 0
KTA1 131339Z 07005KT 21/11 A2991 RMK A01 T02130111  RH  052%=      5-min Rain = 0
KTA1 131340Z 08005KT 21/11 A2991 RMK A01 T02130112  RH  052%=      5-min Rain = 0
KTA1 131341Z 08005KT 21/11 A2991 RMK A01 T02130112  RH  052%=      5-min Rain = 0
KTA1 131342Z 09005KT 21/11 A2991 RMK A01 T02140113  RH  052%=      5-min Rain = 0
KTA1 131343Z 10005KT 21/11 A2991 RMK A01 T02140113  RH  052%=      5-min Rain = 0
KTA1 131344Z 11005KT 21/11 A2991 RMK A01 T02140114  RH  053%=      5-min Rain = 0
KTA1 131345Z 11005KT 21/11 A2991 RMK A01 T02140114  RH  053%=      5-min Rain = 0
KTA1 131346Z 12005KT 21/11 A2991 RMK A01 T02140114  RH  053%=      5-min Rain = 0
KTA1 131347Z 11005KT 21/11 A2991 RMK A01 T02140114  RH  053%=      5-min Rain = 0
KTA1 131348Z 11005KT 21/11 A2991 RMK A01 T02140113  RH  053%=      5-min Rain = 0
KTA1 131349Z 11005KT 21/11 A2991 RMK A01 T02140113  RH  053%=      5-min Rain = 0
KTA1 131350Z 11005KT 22/11 A2991 RMK A01 T02150113  RH  052%=      5-min Rain = 0
KTA1 131351Z 11006KT 22/11 A2991 RMK A01 T02150113  RH  052%=      5-min Rain = 0
KTA1 131352Z 10004KT 22/11 A2991 RMK A01 T02160112  RH  052%=      5-min Rain = 0
KTA1 131353Z 10005KT 22/11 A2991 RMK A01 T02160113  RH  052%=      5-min Rain = 0
KTA1 131354Z 10006KT 22/11 A2991 RMK A01 T02170112  RH  051%=      5-min Rain = 0
KTA1 131355Z 11007KT 22/11 A2991 RMK A01 T02170110  RH  051%=      5-min Rain = 0
KTA1 131356Z 10006KT 22/11 A2991 RMK A01 T02170110  RH  051%=      5-min Rain = 0
KTA1 131357Z 10006KT 22/11 A2991 RMK A01 T02170111  RH  051%=      5-min Rain = 0
KTA1 131358Z 10006KT 22/11 A2991 RMK A01 T02180112  RH  051%=      5-min Rain = 0
KTA1 131359Z 10006KT 22/11 A2991 RMK A01 T02170113  RH  051%=      5-min Rain = 0
KTA1 131400Z 10005KT 22/11 A2991 RMK A01 T02170114  RH  052%=      5-min Rain = 0
KTA1 131401Z 10004KT 22/12 A2991 RMK A01 T02170115  RH  052%=      5-min Rain = 0
KTA1 131402Z 11004KT 22/12 A2991 RMK A01 T02170115  RH  052%=      5-min Rain = 0
KTA1 131403Z 11005KT 22/11 A2991 RMK A01 T02170114  RH  052%=      5-min Rain = 0
KTA1 131404Z 12005KT 22/12 A2991 RMK A01 T02170115  RH  052%=      5-min Rain = 0
KTA1 131405Z 11004KT 22/12 A2991 RMK A01 T02170115  RH  052%=      5-min Rain = 0
KTA1 131406Z 12005KT 22/11 A2991 RMK A01 T02170112  RH  051%=      5-min Rain = 0
KTA1 131407Z 12005KT 22/11 A2991 RMK A01 T02180110  RH  050%=      5-min Rain = 0
KTA1 131408Z 11007KT 22/11 A2991 RMK A01 T02190110  RH  050%=      5-min Rain = 0
KTA1 131409Z 12006KT 22/11 A2991 RMK A01 T02190108  RH  049%=      5-min Rain = 0
KTA1 131410Z 11006KT 22/11 A2991 RMK A01 T02190110  RH  050%=      5-min Rain = 0
KTA1 131411Z 11007KT 22/11 A2991 RMK A01 T02190110  RH  050%=      5-min Rain = 0
KTA1 131412Z 11007KT 22/11 A2991 RMK A01 T02200109  RH  050%=      5-min Rain = 0
KTA1 131413Z 11006KT 22/11 A2991 RMK A01 T02200110  RH  050%=      5-min Rain = 0
KTA1 131414Z 11007KT 22/11 A2991 RMK A01 T02200111  RH  050%=      5-min Rain = 0
KTA1 131415Z 11007KT 22/11 A2991 RMK A01 T02200110  RH  050%=      5-min Rain = 0
KTA1 131416Z 12007KT 22/11 A2991 RMK A01 T02200111  RH  050%=      5-min Rain = 0
KTA1 131417Z 12007KT 22/11 A2991 RMK A01 T02200111  RH  050%=      5-min Rain = 0
KTA1 131418Z 13007KT 22/11 A2991 RMK A01 T02200111  RH  050%=      5-min Rain = 0
KTA1 131419Z 13007KT 22/11 A2991 RMK A01 T02200110  RH  050%=      5-min Rain = 0
KTA1 131420Z 13007KT 22/11 A2991 RMK A01 T02200109  RH  049%=      5-min Rain = 0
KTA1 131421Z 13007KT 22/11 A2991 RMK A01 T02200109  RH  049%=      5-min Rain = 0
KTA1 131422Z 14006KT 22/11 A2991 RMK A01 T02210111  RH  050%=      5-min Rain = 0
KTA1 131423Z 13007KT 22/11 A2991 RMK A01 T02210110  RH  049%=      5-min Rain = 0
KTA1 131424Z 13005KT 22/11 A2991 RMK A01 T02210109  RH  049%=      5-min Rain = 0
KTA1 131425Z 13005KT 22/11 A2991 RMK A01 T02220111  RH  049%=      5-min Rain = 0
KTA1 131426Z 13004KT 22/11 A2991 RMK A01 T02220111  RH  049%=      5-min Rain = 0
KTA1 131427Z 13005KT 22/11 A2991 RMK A01 T02230111  RH  049%=      5-min Rain = 0
KTA1 131428Z 13006KT 22/11 A2991 RMK A01 T02240109  RH  048%=      5-min Rain = 0
KTA1 131429Z 14007KT 22/11 A2991 RMK A01 T02240107  RH  048%=      5-min Rain = 0
KTA1 131430Z 13007KT 22/11 A2991 RMK A01 T02240107  RH  048%=      5-min Rain = 0
KTA1 131431Z 14008KT 23/11 A2991 RMK A01 T02250107  RH  047%=      5-min Rain = 0
KTA1 131432Z 14008KT 23/11 A2991 RMK A01 T02250106  RH  047%=      5-min Rain = 0
KTA1 131433Z 14009KT 23/10 A2991 RMK A01 T02260104  RH  046%=      5-min Rain = 0
KTA1 131434Z 15008KT 23/10 A2991 RMK A01 T02260103  RH  046%=      5-min Rain = 0
KTA1 131435Z 14010KT 23/10 A2991 RMK A01 T02260103  RH  046%=      5-min Rain = 0
KTA1 131436Z 14009KT 23/10 A2991 RMK A01 T02260103  RH  046%=      5-min Rain = 0
KTA1 131437Z 14009KT 23/10 A2991 RMK A01 T02260104  RH  046%=      5-min Rain = 0
KTA1 131438Z 15009KT 23/10 A2991 RMK A01 T02260104  RH  046%=      5-min Rain = 0
KTA1 131439Z 16008KT 23/10 A2991 RMK A01 T02260104  RH  046%=      5-min Rain = 0
KTA1 131440Z 16008KT 23/11 A2991 RMK A01 T02270105  RH  046%=      5-min Rain = 0
KTA1 131441Z 15008KT 23/10 A2991 RMK A01 T02270104  RH  046%=      5-min Rain = 0
KTA1 131442Z 16009KT 23/10 A2991 RMK A01 T02270104  RH  046%=      5-min Rain = 0
KTA1 131443Z 15008KT 23/10 A2991 RMK A01 T02280104  RH  045%=      5-min Rain = 0
KTA1 131444Z 15007KT 23/10 A2991 RMK A01 T02280104  RH  045%=      5-min Rain = 0
KTA1 131445Z 15010KT 23/10 A2991 RMK A01 T02290104  RH  045%=      5-min Rain = 0
KTA1 131446Z 15008KT 23/10 A2991 RMK A01 T02290103  RH  045%=      5-min Rain = 0
KTA1 131447Z 15008KT 23/10 A2991 RMK A01 T02290103  RH  045%=      5-min Rain = 0
KTA1 131448Z 15008KT 23/10 A2991 RMK A01 T02300103  RH  045%=      5-min Rain = 0
KTA1 131449Z 15008KT 23/10 A2991 RMK A01 T02300103  RH  045%=      5-min Rain = 0
KTA1 131450Z 15008KT 23/10 A2991 RMK A01 T02300102  RH  044%=      5-min Rain = 0
KTA1 131451Z 16009KT 23/10 A2991 RMK A01 T02310103  RH  044%=      5-min Rain = 0
KTA1 131452Z 15008KT 23/10 A2991 RMK A01 T02310103  RH  044%=      5-min Rain = 0
KTA1 131453Z 15008KT 23/10 A2991 RMK A01 T02310102  RH  044%=      5-min Rain = 0
KTA1 131454Z 15010KT 23/10 A2991 RMK A01 T02310103  RH  044%=      5-min Rain = 0
KTA1 131455Z 14010KT 23/10 A2991 RMK A01 T02310101  RH  044%=      5-min Rain = 0
KTA1 131456Z 15009KT 23/10 A2991 RMK A01 T02310101  RH  044%=      5-min Rain = 0
KTA1 131457Z 16010KT 23/10 A2991 RMK A01 T02310101  RH  044%=      5-min Rain = 0
KTA1 131458Z 15008KT 23/10 A2991 RMK A01 T02310101  RH  044%=      5-min Rain = 0
KTA1 131459Z 15010KT 23/10 A2991 RMK A01 T02320102  RH  044%=      5-min Rain = 0
KTA1 131500Z 15009KT 23/10 A2991 RMK A01 T02320101  RH  044%=      5-min Rain = 0
KTA1 131501Z 15010KT 23/10 A2991 RMK A01 T02320101  RH  044%=      5-min Rain = 0
KTA1 131502Z 16007KT 23/10 A2991 RMK A01 T02320102  RH  044%=      5-min Rain = 0
KTA1 131503Z 15008KT 23/10 A2991 RMK A01 T02320102  RH  044%=      5-min Rain = 0
KTA1 131504Z 15007KT 23/10 A2991 RMK A01 T02330104  RH  044%=      5-min Rain = 0
KTA1 131505Z 15009KT 23/10 A2991 RMK A01 T02330103  RH  044%=      5-min Rain = 0
KTA1 131506Z 15010KT 23/10 A2991 RMK A01 T02340102  RH  043%=      5-min Rain = 0
KTA1 131507Z 14009KT 23/10 A2991 RMK A01 T02340102  RH  043%=      5-min Rain = 0
KTA1 131508Z 15009KT 23/10 A2991 RMK A01 T02340102  RH  043%=      5-min Rain = 0
KTA1 131509Z 15008KT 23/10 A2991 RMK A01 T02340102  RH  043%=      5-min Rain = 0
KTA1 131510Z 15007KT 24/10 A2991 RMK A01 T02350102  RH  043%=      5-min Rain = 0
KTA1 131511Z 15006KT 24/10 A2991 RMK A01 T02350103  RH  043%=      5-min Rain = 0
KTA1 131512Z 16007KT 24/10 A2991 RMK A01 T02360103  RH  043%=      5-min Rain = 0
KTA1 131513Z 16007KT 24/10 A2992 RMK A01 T02360104  RH  043%=      5-min Rain = 0
KTA1 131514Z 15007KT 24/10 A2992 RMK A01 T02370104  RH  043%=      5-min Rain = 0
KTA1 131515Z 14006KT 24/11 A2992 RMK A01 T02370105  RH  043%=      5-min Rain = 0
KTA1 131516Z 14006KT 24/11 A2992 RMK A01 T02380105  RH  043%=      5-min Rain = 0
KTA1 131517Z 15006KT 24/11 A2992 RMK A01 T02390105  RH  043%=      5-min Rain = 0
KTA1 131518Z 14005KT 24/11 A2992 RMK A01 T02390105  RH  043%=      5-min Rain = 0
KTA1 131519Z 15005KT 24/11 A2992 RMK A01 T02400106  RH  043%=      5-min Rain = 0
KTA1 131520Z 13006KT 24/11 A2992 RMK A01 T02410105  RH  042%=      5-min Rain = 0
KTA1 131521Z 13006KT 24/11 A2992 RMK A01 T02410105  RH  042%=      5-min Rain = 0
KTA1 131522Z 13006KT 24/11 A2992 RMK A01 T02420105  RH  042%=      5-min Rain = 0
KTA1 131523Z 14006KT 24/10 A2992 RMK A01 T02430104  RH  042%=      5-min Rain = 0
KTA1 131524Z 13006KT 24/11 A2992 RMK A01 T02430105  RH  042%=      5-min Rain = 0
KTA1 131525Z 14006KT 24/10 A2992 RMK A01 T02430104  RH  042%=      5-min Rain = 0
KTA1 131526Z 14005KT 24/10 A2992 RMK A01 T02440104  RH  041%=      5-min Rain = 0
KTA1 131527Z 15005KT 24/11 A2992 RMK A01 T02440105  RH  041%=      5-min Rain = 0
KTA1 131528Z 14006KT 25/11 A2992 RMK A01 T02450107  RH  042%=      5-min Rain = 0
KTA1 131529Z 14006KT 25/11 A2992 RMK A01 T02460107  RH  042%=      5-min Rain = 0
KTA1 131530Z 15007KT 25/11 A2992 RMK A01 T02470106  RH  041%=      5-min Rain = 0
KTA1 131531Z 15006KT 25/11 A2992 RMK A01 T02470106  RH  041%=      5-min Rain = 0
KTA1 131532Z 15006KT 25/11 A2992 RMK A01 T02470107  RH  041%=      5-min Rain = 0
KTA1 131533Z 14007KT 25/11 A2992 RMK A01 T02470107  RH  041%=      5-min Rain = 0
KTA1 131534Z 16005KT 25/11 A2992 RMK A01 T02480108  RH  042%=      5-min Rain = 0
KTA1 131535Z 16006KT 25/11 A2992 RMK A01 T02500109  RH  041%=      5-min Rain = 0
KTA1 131536Z 17008KT 25/11 A2992 RMK A01 T02500106  RH  040%=      5-min Rain = 0
KTA1 131537Z 16008KT 25/11 A2992 RMK A01 T02500105  RH  040%=      5-min Rain = 0
KTA1 131538Z 16007KT 25/11 A2992 RMK A01 T02490105  RH  040%=      5-min Rain = 0
KTA1 131539Z 16008KT 25/11 A2992 RMK A01 T02480106  RH  041%=      5-min Rain = 0
KTA1 131540Z 16007KT 25/11 A2992 RMK A01 T02480106  RH  041%=      5-min Rain = 0
KTA1 131541Z 16006KT 25/11 A2992 RMK A01 T02480106  RH  041%=      5-min Rain = 0
KTA1 131542Z 15006KT 25/11 A2992 RMK A01 T02480109  RH  042%=      5-min Rain = 0
KTA1 131543Z 13006KT 25/11 A2992 RMK A01 T02490108  RH  041%=      5-min Rain = 0
KTA1 131544Z 14007KT 25/11 A2992 RMK A01 T02500107  RH  040%=      5-min Rain = 0
KTA1 131545Z 14007KT 25/11 A2992 RMK A01 T02500107  RH  041%=      5-min Rain = 0
KTA1 131546Z 14007KT 25/11 A2992 RMK A01 T02500108  RH  041%=      5-min Rain = 0
KTA1 131547Z 13007KT 25/11 A2992 RMK A01 T02500106  RH  040%=      5-min Rain = 0
KTA1 131548Z 14007KT 25/11 A2992 RMK A01 T02490106  RH  041%=      5-min Rain = 0
KTA1 131549Z 13007KT 25/11 A2992 RMK A01 T02490107  RH  041%=      5-min Rain = 0
KTA1 131550Z 14007KT 25/11 A2992 RMK A01 T02500107  RH  041%=      5-min Rain = 0
KTA1 131551Z 14006KT 25/11 A2992 RMK A01 T02500107  RH  041%=      5-min Rain = 0
KTA1 131552Z 14007KT 25/11 A2992 RMK A01 T02500108  RH  041%=      5-min Rain = 0
KTA1 131553Z 14006KT 25/11 A2992 RMK A01 T02510108  RH  041%=      5-min Rain = 0
KTA1 131554Z 15007KT 25/11 A2992 RMK A01 T02510108  RH  041%=      5-min Rain = 0
KTA1 131555Z 14007KT 25/11 A2992 RMK A01 T02510108  RH  041%=      5-min Rain = 0
KTA1 131556Z 13006KT 25/11 A2992 RMK A01 T02510108  RH  041%=      5-min Rain = 0
KTA1 131557Z 14006KT 25/11 A2992 RMK A01 T02510108  RH  041%=      5-min Rain = 0
KTA1 131558Z 14005KT 25/11 A2992 RMK A01 T02510109  RH  041%=      5-min Rain = 0
KTA1 131559Z 15005KT 25/11 A2992 RMK A01 T02510110  RH  041%=      5-min Rain = 0
KTA1 131600Z 14005KT 25/11 A2992 RMK A01 T02530112  RH  041%=      5-min Rain = 0
KTA1 131601Z 15007KT 25/11 A2992 RMK A01 T02540112  RH  041%=      5-min Rain = 0
KTA1 131602Z 16005KT 26/11 A2992 RMK A01 T02550110  RH  040%=      5-min Rain = 0
KTA1 131603Z 15003KT 26/11 A2992 RMK A01 T02550112  RH  041%=      5-min Rain = 0
KTA1 131604Z 15005KT 26/11 A2992 RMK A01 T02560112  RH  041%=      5-min Rain = 0
KTA1 131605Z 14006KT 26/11 A2992 RMK A01 T02570113  RH  040%=      5-min Rain = 0
KTA1 131606Z 14006KT 26/11 A2992 RMK A01 T02580110  RH  040%=      5-min Rain = 0
KTA1 131607Z 15005KT 26/11 A2992 RMK A01 T02570111  RH  040%=      5-min Rain = 0
KTA1 131608Z 14006KT 26/11 A2992 RMK A01 T02570112  RH  040%=      5-min Rain = 0
KTA1 131609Z 15005KT 26/11 A2992 RMK A01 T02580111  RH  040%=      5-min Rain = 0
KTA1 131610Z 13005KT 26/11 A2992 RMK A01 T02580111  RH  040%=      5-min Rain = 0
KTA1 131611Z 15007KT 26/11 A2992 RMK A01 T02590111  RH  040%=      5-min Rain = 0
KTA1 131612Z 16005KT 26/11 A2992 RMK A01 T02600111  RH  039%=      5-min Rain = 0
KTA1 131613Z 17006KT 26/11 A2992 RMK A01 T02610112  RH  039%=      5-min Rain = 0
KTA1 131614Z 16006KT 26/11 A2992 RMK A01 T02610111  RH  039%=      5-min Rain = 0
KTA1 131615Z 14005KT 26/11 A2992 RMK A01 T02620114  RH  039%=      5-min Rain = 0
KTA1 131616Z 16006KT 26/11 A2992 RMK A01 T02640113  RH  039%=      5-min Rain = 0
KTA1 131617Z 16005KT 27/11 A2992 RMK A01 T02650113  RH  039%=      5-min Rain = 0
KTA1 131618Z 16007KT 27/11 A2992 RMK A01 T02660112  RH  038%=      5-min Rain = 0
KTA1 131619Z 16006KT 27/11 A2992 RMK A01 T02660110  RH  038%=      5-min Rain = 0
KTA1 131620Z 15007KT 27/11 A2992 RMK A01 T02660111  RH  038%=      5-min Rain = 0
KTA1 131621Z 14007KT 27/11 A2992 RMK A01 T02660111  RH  038%=      5-min Rain = 0
KTA1 131622Z 15007KT 27/11 A2992 RMK A01 T02650110  RH  038%=      5-min Rain = 0
KTA1 131623Z 15006KT 26/11 A2992 RMK A01 T02640111  RH  038%=      5-min Rain = 0
KTA1 131624Z 14007KT 26/11 A2992 RMK A01 T02640111  RH  038%=      5-min Rain = 0
KTA1 131625Z 14006KT 26/11 A2991 RMK A01 T02640111  RH  038%=      5-min Rain = 0
KTA1 131626Z 13006KT 27/11 A2991 RMK A01 T02650111  RH  038%=      5-min Rain = 0
KTA1 131627Z 14007KT 27/11 A2991 RMK A01 T02660110  RH  038%=      5-min Rain = 0
KTA1 131628Z 14005KT 27/11 A2991 RMK A01 T02660111  RH  038%=      5-min Rain = 0
KTA1 131629Z 14006KT 27/11 A2991 RMK A01 T02660111  RH  038%=      5-min Rain = 0
KTA1 131630Z 14006KT 27/11 A2991 RMK A01 T02660110  RH  038%=      5-min Rain = 0
KTA1 131631Z 14006KT 27/11 A2991 RMK A01 T02680111  RH  038%=      5-min Rain = 0
KTA1 131632Z 13007KT 27/11 A2991 RMK A01 T02680110  RH  037%=      5-min Rain = 0
KTA1 131633Z 13007KT 27/11 A2992 RMK A01 T02680111  RH  037%=      5-min Rain = 0
KTA1 131634Z 15006KT 27/11 A2992 RMK A01 T02680110  RH  037%=      5-min Rain = 0
KTA1 131635Z 15007KT 27/11 A2992 RMK A01 T02680111  RH  037%=      5-min Rain = 0
KTA1 131636Z 13006KT 27/11 A2992 RMK A01 T02690110  RH  037%=      5-min Rain = 0
KTA1 131637Z 13005KT 27/11 A2992 RMK A01 T02700111  RH  037%=      5-min Rain = 0
KTA1 131638Z 13005KT 27/11 A2992 RMK A01 T02720111  RH  037%=      5-min Rain = 0
KTA1 131639Z 14007KT 27/11 A2992 RMK A01 T02740112  RH  037%=      5-min Rain = 0
KTA1 131640Z 14006KT 28/11 A2992 RMK A01 T02760113  RH  036%=      5-min Rain = 0
KTA1 131641Z 14005KT 28/11 A2992 RMK A01 T02760113  RH  036%=      5-min Rain = 0
KTA1 131642Z 13006KT 28/12 A2992 RMK A01 T02780115  RH  036%=      5-min Rain = 0
KTA1 131643Z 14006KT 28/11 A2992 RMK A01 T02800114  RH  036%=      5-min Rain = 0
KTA1 131644Z 13008KT 28/11 A2991 RMK A01 T02800114  RH  036%=      5-min Rain = 0
KTA1 131645Z 13008KT 28/11 A2991 RMK A01 T02810111  RH  035%=      5-min Rain = 0
KTA1 131646Z 13005KT 28/11 A2992 RMK A01 T02810110  RH  035%=      5-min Rain = 0
KTA1 131647Z 14006KT 28/11 A2991 RMK A01 T02790111  RH  035%=      5-min Rain = 0
KTA1 131648Z 14007KT 28/11 A2991 RMK A01 T02820112  RH  035%=      5-min Rain = 0
KTA1 131649Z 13007KT 28/11 A2991 RMK A01 T02830111  RH  035%=      5-min Rain = 0
KTA1 131650Z 14007KT 28/11 A2991 RMK A01 T02830112  RH  034%=      5-min Rain = 0
KTA1 131651Z 15006KT 28/11 A2991 RMK A01 T02840111  RH  034%=      5-min Rain = 0
KTA1 131652Z 14006KT 28/11 A2991 RMK A01 T02830112  RH  034%=      5-min Rain = 0
KTA1 131653Z 16006KT 28/11 A2991 RMK A01 T02830113  RH  035%=      5-min Rain = 0
KTA1 131654Z 14006KT 28/11 A2991 RMK A01 T02840111  RH  034%=      5-min Rain = 0
KTA1 131655Z 13007KT 28/11 A2991 RMK A01 T02840113  RH  035%=      5-min Rain = 0
KTA1 131656Z 12006KT 28/11 A2991 RMK A01 T02840111  RH  034%=      5-min Rain = 0
KTA1 131657Z 12006KT 28/11 A2991 RMK A01 T02830112  RH  034%=      5-min Rain = 0
KTA1 131658Z 12006KT 28/11 A2991 RMK A01 T02830112  RH  035%=      5-min Rain = 0
KTA1 131659Z 13007KT 28/11 A2991 RMK A01 T02820112  RH  035%=      5-min Rain = 0
KTA1 131700Z 13007KT 28/11 A2991 RMK A01 T02830113  RH  035%=      5-min Rain = 0
KTA1 131701Z 12006KT 28/11 A2991 RMK A01 T02830114  RH  035%=      5-min Rain = 0
KTA1 131702Z 12006KT 28/12 A2991 RMK A01 T02820116  RH  036%=      5-min Rain = 0
KTA1 131703Z 11005KT 28/11 A2991 RMK A01 T02830113  RH  035%=      5-min Rain = 0
KTA1 131704Z 14007KT 28/11 A2991 RMK A01 T02830114  RH  035%=      5-min Rain = 0
KTA1 131705Z 15005KT 28/11 A2991 RMK A01 T02830112  RH  035%=      5-min Rain = 0
KTA1 131706Z 15006KT 28/11 A2991 RMK A01 T02840114  RH  035%=      5-min Rain = 0
KTA1 131707Z 13007KT 29/11 A2991 RMK A01 T02850114  RH  035%=      5-min Rain = 0
KTA1 131708Z 15007KT 29/11 A2991 RMK A01 T02860113  RH  034%=      5-min Rain = 0
KTA1 131709Z 14006KT 29/11 A2991 RMK A01 T02860112  RH  034%=      5-min Rain = 0
KTA1 131710Z 14006KT 29/11 A2991 RMK A01 T02860111  RH  034%=      5-min Rain = 0
KTA1 131711Z 15005KT 29/11 A2991 RMK A01 T02860113  RH  034%=      5-min Rain = 0
KTA1 131712Z 15007KT 29/11 A2991 RMK A01 T02850111  RH  034%=      5-min Rain = 0
KTA1 131713Z 14006KT 29/11 A2991 RMK A01 T02850112  RH  034%=      5-min Rain = 0
KTA1 131714Z 15007KT 29/11 A2991 RMK A01 T02850111  RH  034%=      5-min Rain = 0
KTA1 131715Z 15007KT 29/11 A2991 RMK A01 T02850112  RH  034%=      5-min Rain = 0
KTA1 131716Z 14008KT 29/11 A2991 RMK A01 T02850112  RH  034%=      5-min Rain = 0
KTA1 131717Z 14006KT 29/11 A2991 RMK A01 T02860112  RH  034%=      5-min Rain = 0
KTA1 131718Z 14006KT 29/11 A2991 RMK A01 T02870110  RH  033%=      5-min Rain = 0
KTA1 131719Z 15007KT 29/11 A2991 RMK A01 T02870111  RH  033%=      5-min Rain = 0
KTA1 131720Z 15007KT 29/11 A2991 RMK A01 T02880111  RH  033%=      5-min Rain = 0
KTA1 131721Z 15006KT 29/11 A2991 RMK A01 T02880112  RH  034%=      5-min Rain = 0
KTA1 131722Z 13006KT 29/11 A2991 RMK A01 T02880112  RH  033%=      5-min Rain = 0
KTA1 131723Z 12005KT 29/11 A2991 RMK A01 T02900112  RH  033%=      5-min Rain = 0
KTA1 131724Z 14008KT 29/11 A2991 RMK A01 T02910111  RH  033%=      5-min Rain = 0
KTA1 131725Z 14006KT 29/11 A2991 RMK A01 T02920110  RH  032%=      5-min Rain = 0
KTA1 131726Z 13007KT 29/11 A2991 RMK A01 T02920110  RH  032%=      5-min Rain = 0
KTA1 131727Z 15006KT 29/11 A2991 RMK A01 T02930112  RH  033%=      5-min Rain = 0
KTA1 131728Z 15006KT 29/11 A2991 RMK A01 T02940113  RH  033%=      5-min Rain = 0
KTA1 131729Z 14006KT 29/11 A2991 RMK A01 T02940114  RH  033%=      5-min Rain = 0
KTA1 131730Z 12006KT 30/11 A2991 RMK A01 T02960114  RH  032%=      5-min Rain = 0
KTA1 131731Z 14006KT 30/11 A2991 RMK A01 T02970112  RH  032%=      5-min Rain = 0
KTA1 131732Z 14005KT 30/11 A2991 RMK A01 T02980112  RH  032%=      5-min Rain = 0
KTA1 131733Z 13006KT 30/11 A299 RMK A01 T02960113  RH  032%=      5-min Rain = 0
KTA1 131734Z 13007KT 30/11 A299 RMK A01 T02960112  RH  032%=      5-min Rain = 0
KTA1 131735Z 13008KT 30/11 A299 RMK A01 T02970112  RH  032%=      5-min Rain = 0
KTA1 131736Z 14007KT 30/11 A299 RMK A01 T02970113  RH  032%=      5-min Rain = 0
KTA1 131737Z 14008KT 30/11 A299 RMK A01 T02960111  RH  032%=      5-min Rain = 0
KTA1 131738Z 15006KT 30/11 A299 RMK A01 T02970112  RH  032%=      5-min Rain = 0
KTA1 131739Z 13008KT 30/11 A299 RMK A01 T02970112  RH  032%=      5-min Rain = 0
KTA1 131740Z 14007KT 30/11 A299 RMK A01 T02970109  RH  031%=      5-min Rain = 0
KTA1 131741Z 15006KT 30/11 A299 RMK A01 T02960111  RH  032%=      5-min Rain = 0
KTA1 131742Z 14007KT 30/11 A299 RMK A01 T02950112  RH  032%=      5-min Rain = 0
KTA1 131743Z 15007KT 30/11 A299 RMK A01 T02950112  RH  032%=      5-min Rain = 0
KTA1 131744Z 14007KT 30/11 A299 RMK A01 T02960111  RH  032%=      5-min Rain = 0
KTA1 131745Z 14009KT 30/11 A299 RMK A01 T02960110  RH  032%=      5-min Rain = 0
KTA1 131746Z 15006KT 30/11 A299 RMK A01 T02960109  RH  031%=      5-min Rain = 0
KTA1 131747Z 13007KT 30/11 A299 RMK A01 T02950109  RH  032%=      5-min Rain = 0
KTA1 131748Z 14007KT 30/11 A299 RMK A01 T02960110  RH  032%=      5-min Rain = 0
KTA1 131749Z 15006KT 30/11 A299 RMK A01 T02970110  RH  032%=      5-min Rain = 0
KTA1 131750Z 16008KT 30/11 A299 RMK A01 T02970111  RH  032%=      5-min Rain = 0
KTA1 131751Z 15007KT 30/11 A299 RMK A01 T02970110  RH  032%=      5-min Rain = 0
KTA1 131752Z 13007KT 30/11 A299 RMK A01 T02970111  RH  032%=      5-min Rain = 0
KTA1 131753Z 13007KT 30/11 A299 RMK A01 T02970112  RH  032%=      5-min Rain = 0
KTA1 131754Z 14009KT 30/11 A299 RMK A01 T02980109  RH  031%=      5-min Rain = 0
KTA1 131755Z 13008KT 30/11 A299 RMK A01 T02980109  RH  031%=      5-min Rain = 0
KTA1 131756Z 14008KT 30/11 A299 RMK A01 T02990109  RH  031%=      5-min Rain = 0
KTA1 131757Z 14008KT 30/11 A299 RMK A01 T03020109  RH  030%=      5-min Rain = 0
KTA1 131758Z 14007KT 30/11 A299 RMK A01 T03030108  RH  030%=      5-min Rain = 0
KTA1 131759Z 14009KT 30/11 A299 RMK A01 T03030110  RH  030%=      5-min Rain = 0
KTA1 131800Z 13007KT 30/11 A299 RMK A01 T03040110  RH  030%=      5-min Rain = 0
KTA1 131801Z 12007KT 31/11 A299 RMK A01 T03060111  RH  030%=      5-min Rain = 0
KTA1 131802Z 12009KT 31/11 A299 RMK A01 T03080109  RH  029%=      5-min Rain = 0
KTA1 131803Z 12010KT 31/11 A299 RMK A01 T03090110  RH  029%=      5-min Rain = 0
KTA1 131804Z 12009KT 31/11 A299 RMK A01 T03100110  RH  029%=      5-min Rain = 0
KTA1 131805Z 13007KT 31/11 A299 RMK A01 T03100112  RH  030%=      5-min Rain = 0
KTA1 131806Z 14007KT 31/11 A299 RMK A01 T03120112  RH  029%=      5-min Rain = 0
KTA1 131807Z 12007KT 31/11 A299 RMK A01 T03140112  RH  029%=      5-min Rain = 0
KTA1 131808Z 14006KT 32/11 A299 RMK A01 T03150112  RH  029%=      5-min Rain = 0
KTA1 131809Z 12005KT 32/11 A299 RMK A01 T03170114  RH  029%=      5-min Rain = 0
KTA1 131810Z 12007KT 32/11 A2989 RMK A01 T03200114  RH  028%=      5-min Rain = 0
KTA1 131811Z 11008KT 32/11 A2989 RMK A01 T03200112  RH  028%=      5-min Rain = 0
KTA1 131812Z 10009KT 32/11 A2989 RMK A01 T03170109  RH  028%=      5-min Rain = 0
KTA1 131813Z 11007KT 32/11 A2989 RMK A01 T03160112  RH  029%=      5-min Rain = 0
KTA1 131814Z 12008KT 32/11 A2989 RMK A01 T03170113  RH  029%=      5-min Rain = 0
KTA1 131815Z 11009KT 32/11 A2989 RMK A01 T03180110  RH  028%=      5-min Rain = 0
KTA1 131816Z 12009KT 32/11 A2989 RMK A01 T03180108  RH  028%=      5-min Rain = 0
KTA1 131817Z 13007KT 32/11 A2989 RMK A01 T03190109  RH  028%=      5-min Rain = 0
KTA1 131818Z 13007KT 32/11 A2989 RMK A01 T03190112  RH  028%=      5-min Rain = 0
KTA1 131819Z 11009KT 32/11 A2989 RMK A01 T03220112  RH  028%=      5-min Rain = 0
KTA1 131820Z 12009KT 32/11 A2989 RMK A01 T03240110  RH  027%=      5-min Rain = 0
KTA1 131821Z 13010KT 32/11 A2989 RMK A01 T03230109  RH  027%=      5-min Rain = 0
KTA1 131822Z 13008KT 32/11 A2989 RMK A01 T03210109  RH  027%=      5-min Rain = 0
KTA1 131823Z 13007KT 32/11 A2989 RMK A01 T03200109  RH  027%=      5-min Rain = 0
KTA1 131824Z 14009KT 32/11 A2989 RMK A01 T03200109  RH  027%=      5-min Rain = 0
KTA1 131825Z 14007KT 32/11 A2989 RMK A01 T03210109  RH  027%=      5-min Rain = 0
KTA1 131826Z 14007KT 32/11 A2989 RMK A01 T03220111  RH  027%=      5-min Rain = 0
KTA1 131827Z 14009KT 32/11 A2989 RMK A01 T03240112  RH  027%=      5-min Rain = 0
KTA1 131828Z 13007KT 33/11 A2988 RMK A01 T03260110  RH  027%=      5-min Rain = 0
KTA1 131829Z 14005KT 33/11 A2988 RMK A01 T03260112  RH  027%=      5-min Rain = 0
KTA1 131830Z 12004KT 33/11 A2988 RMK A01 T03280111  RH  027%=      5-min Rain = 0
KTA1 131831Z 11009KT 33/11 A2988 RMK A01 T03270110  RH  026%=      5-min Rain = 0
KTA1 131832Z 11008KT 33/11 A2988 RMK A01 T03260109  RH  026%=      5-min Rain = 0
KTA1 131833Z 13010KT 33/11 A2988 RMK A01 T03270111  RH  027%=      5-min Rain = 0
KTA1 131834Z 13008KT 33/11 A2988 RMK A01 T03290110  RH  026%=      5-min Rain = 0
KTA1 131835Z 12007KT 33/11 A2988 RMK A01 T03270110  RH  026%=      5-min Rain = 0
KTA1 131836Z 12007KT 33/11 A2988 RMK A01 T03270108  RH  026%=      5-min Rain = 0
KTA1 131837Z 13007KT 33/11 A2988 RMK A01 T03260109  RH  027%=      5-min Rain = 0
KTA1 131838Z 14007KT 33/11 A2988 RMK A01 T03260112  RH  027%=      5-min Rain = 0
KTA1 131839Z 15008KT 33/11 A2988 RMK A01 T03300111  RH  026%=      5-min Rain = 0
KTA1 131840Z 13009KT 33/11 A2988 RMK A01 T03310110  RH  026%=      5-min Rain = 0
KTA1 131841Z 13009KT 33/11 A2988 RMK A01 T03320109  RH  026%=      5-min Rain = 0
KTA1 131842Z 13009KT 33/11 A2988 RMK A01 T03320110  RH  026%=      5-min Rain = 0
KTA1 131843Z 14009KT 33/11 A2988 RMK A01 T03320109  RH  026%=      5-min Rain = 0
KTA1 131844Z 15008KT 33/11 A2988 RMK A01 T03310110  RH  026%=      5-min Rain = 0
KTA1 131845Z 13008KT 33/11 A2987 RMK A01 T03310111  RH  026%=      5-min Rain = 0
KTA1 131846Z 13009KT 33/11 A2987 RMK A01 T03320109  RH  026%=      5-min Rain = 0
KTA1 131847Z 12007KT 33/11 A2987 RMK A01 T03310108  RH  026%=      5-min Rain = 0
KTA1 131848Z 11008KT 33/11 A2987 RMK A01 T03300109  RH  026%=      5-min Rain = 0
KTA1 131849Z 14010KT 33/11 A2987 RMK A01 T03310106  RH  025%=      5-min Rain = 0
KTA1 131850Z 15010KT 33/10 A2987 RMK A01 T03330103  RH  024%=      5-min Rain = 0
KTA1 131851Z 16006KT 33/10 A2987 RMK A01 T03340103  RH  024%=      5-min Rain = 0
KTA1 131852Z 14008KT 33/11 A2987 RMK A01 T03330105  RH  025%=      5-min Rain = 0
KTA1 131853Z 14009KT 33/10 A2987 RMK A01 T03330102  RH  024%=      5-min Rain = 0
KTA1 131854Z 13011KT 33/10 A2987 RMK A01 T03330103  RH  024%=      5-min Rain = 0
KTA1 131855Z 13010KT 34/10 A2987 RMK A01 T03350102  RH  024%=      5-min Rain = 0
KTA1 131856Z 13007KT 33/10 A2987 RMK A01 T03340102  RH  024%=      5-min Rain = 0
KTA1 131857Z 13007KT 33/10 A2987 RMK A01 T03320102  RH  024%=      5-min Rain = 0
KTA1 131858Z 16008KT 33/10 A2987 RMK A01 T03320104  RH  025%=      5-min Rain = 0
KTA1 131859Z 13009KT 33/11 A2987 RMK A01 T03340105  RH  025%=      5-min Rain = 0
KTA1 131900Z 12008KT 34/10 A2987 RMK A01 T03370102  RH  024%=      5-min Rain = 0
KTA1 131901Z 13009KT 34/10 A2987 RMK A01 T03380102  RH  024%=      5-min Rain = 0
KTA1 131902Z 12009KT 34/10 A2987 RMK A01 T03390102  RH  023%=      5-min Rain = 0
KTA1 131903Z 13010KT 34/10 A2987 RMK A01 T03380101  RH  024%=      5-min Rain = 0
KTA1 131904Z 13008KT 34/10 A2987 RMK A01 T03380103  RH  024%=      5-min Rain = 0
KTA1 131905Z 14010KT 34/10 A2987 RMK A01 T03390104  RH  024%=      5-min Rain = 0
KTA1 131906Z 13007KT 34/10 A2987 RMK A01 T03400104  RH  024%=      5-min Rain = 0
KTA1 131907Z 14006KT 34/11 A2987 RMK A01 T03390105  RH  024%=      5-min Rain = 0
KTA1 131908Z 13008KT 34/10 A2987 RMK A01 T03400103  RH  023%=      5-min Rain = 0
KTA1 131909Z 13007KT 34/10 A2987 RMK A01 T03420104  RH  023%=      5-min Rain = 0
KTA1 131910Z 15008KT 34/10 A2986 RMK A01 T03440103  RH  023%=      5-min Rain = 0
KTA1 131911Z 13010KT 35/10 A2986 RMK A01 T03460102  RH  023%=      5-min Rain = 0
KTA1 131912Z 14008KT 35/10 A2986 RMK A01 T03450100  RH  023%=      5-min Rain = 0
KTA1 131913Z 14007KT 34/10 A2986 RMK A01 T03420102  RH  023%=      5-min Rain = 0
KTA1 131914Z 13007KT 34/10 A2986 RMK A01 T03420102  RH  023%=      5-min Rain = 0
KTA1 131915Z 14008KT 34/10 A2986 RMK A01 T03410103  RH  023%=      5-min Rain = 0
KTA1 131916Z 15008KT 34/10 A2986 RMK A01 T03420104  RH  023%=      5-min Rain = 0
KTA1 131917Z 15008KT 34/11 A2986 RMK A01 T03410105  RH  024%=      5-min Rain = 0
KTA1 131918Z 14007KT 34/10 A2986 RMK A01 T03420104  RH  023%=      5-min Rain = 0
KTA1 131919Z 14008KT 34/10 A2986 RMK A01 T03420103  RH  023%=      5-min Rain = 0
KTA1 131920Z 15008KT 34/10 A2986 RMK A01 T03420100  RH  023%=      5-min Rain = 0
KTA1 131921Z 15009KT 34/10 A2986 RMK A01 T03400099  RH  023%=      5-min Rain = 0
KTA1 131922Z 16010KT 34/10 A2986 RMK A01 T03410102  RH  023%=      5-min Rain = 0
KTA1 131923Z 17008KT 34/10 A2986 RMK A01 T03420098  RH  022%=      5-min Rain = 0
KTA1 131924Z 17007KT 34/10 A2986 RMK A01 T03400096  RH  022%=      5-min Rain = 0
KTA1 131925Z 14008KT 34/10 A2986 RMK A01 T03390097  RH  023%=      5-min Rain = 0
KTA1 131926Z 13006KT 34/09 A2986 RMK A01 T03390091  RH  022%=      5-min Rain = 0
KTA1 131927Z 15008KT 34/10 A2986 RMK A01 T03390095  RH  022%=      5-min Rain = 0
KTA1 131928Z 17005KT 34/09 A2986 RMK A01 T03410094  RH  022%=      5-min Rain = 0
KTA1 131929Z 15006KT 34/10 A2986 RMK A01 T03430097  RH  022%=      5-min Rain = 0
KTA1 131930Z 13005KT 35/10 A2985 RMK A01 T03450099  RH  022%=      5-min Rain = 0
KTA1 131931Z 13009KT 35/10 A2985 RMK A01 T03460099  RH  022%=      5-min Rain = 0
KTA1 131932Z 15006KT 35/10 A2985 RMK A01 T03460098  RH  022%=      5-min Rain = 0
KTA1 131933Z 14004KT 35/10 A2985 RMK A01 T03450097  RH  022%=      5-min Rain = 0
KTA1 131934Z 17008KT 35/10 A2985 RMK A01 T03470096  RH  022%=      5-min Rain = 0
KTA1 131935Z 17008KT 35/09 A2985 RMK A01 T03480093  RH  021%=      5-min Rain = 0
KTA1 131936Z 15008KT 35/10 A2985 RMK A01 T03510095  RH  021%=      5-min Rain = 0
KTA1 131937Z 17007KT 35/10 A2985 RMK A01 T03530097  RH  021%=      5-min Rain = 0
KTA1 131938Z 16007KT 36/10 A2985 RMK A01 T03550095  RH  021%=      5-min Rain = 0
KTA1 131939Z 17006KT 35/10 A2985 RMK A01 T03540097  RH  021%=      5-min Rain = 0
KTA1 131940Z 16009KT 35/10 A2985 RMK A01 T03540098  RH  021%=      5-min Rain = 0
KTA1 131941Z 15006KT 35/10 A2985 RMK A01 T03510095  RH  021%=      5-min Rain = 0
KTA1 131942Z 14010KT 35/10 A2985 RMK A01 T03480098  RH  022%=      5-min Rain = 0
KTA1 131943Z 14011KT 35/10 A2985 RMK A01 T03500095  RH  021%=      5-min Rain = 0
KTA1 131944Z 14008KT 35/09 A2985 RMK A01 T03520093  RH  021%=      5-min Rain = 0
KTA1 131945Z 14010KT 35/10 A2984 RMK A01 T03520096  RH  021%=      5-min Rain = 0
KTA1 131946Z 16007KT 35/09 A2984 RMK A01 T03520094  RH  021%=      5-min Rain = 0
KTA1 131947Z 15005KT 35/09 A2984 RMK A01 T03490093  RH  021%=      5-min Rain = 0
KTA1 131948Z 16007KT 35/10 A2984 RMK A01 T03480096  RH  021%=      5-min Rain = 0
KTA1 131949Z 16008KT 35/10 A2984 RMK A01 T03500095  RH  021%=      5-min Rain = 0
KTA1 131950Z 16008KT 35/09 A2984 RMK A01 T03510094  RH  021%=      5-min Rain = 0
KTA1 131951Z 14011KT 35/10 A2984 RMK A01 T03530098  RH  021%=      5-min Rain = 0
KTA1 131952Z 14008KT 35/10 A2984 RMK A01 T03530096  RH  021%=      5-min Rain = 0
KTA1 131953Z 15011KT 35/10 A2984 RMK A01 T03520098  RH  021%=      5-min Rain = 0
KTA1 131954Z 14008KT 35/10 A2984 RMK A01 T03530098  RH  021%=      5-min Rain = 0
KTA1 131955Z 12006KT 35/10 A2984 RMK A01 T03540096  RH  021%=      5-min Rain = 0
KTA1 131956Z 12005G10KT 35/10 A2984 RMK A01 T03540099  RH  021%=      5-min Rain = 0
KTA1 131957Z 15012KT 36/10 A2984 RMK A01 T03550097  RH  021%=      5-min Rain = 0
KTA1 131958Z 15010KT 36/10 A2984 RMK A01 T03550097  RH  021%=      5-min Rain = 0
KTA1 131959Z 15010KT 35/10 A2984 RMK A01 T03540098  RH  021%=      5-min Rain = 0
KTA1 132000Z 16008KT 35/10 A2984 RMK A01 T03540098  RH  021%=      5-min Rain = 0
KTA1 132001Z 16007KT 36/10 A2983 RMK A01 T03550096  RH  021%=      5-min Rain = 0
KTA1 132002Z 13007KT 35/10 A2983 RMK A01 T03540097  RH  021%=      5-min Rain = 0
KTA1 132003Z 14007KT 35/10 A2983 RMK A01 T03540095  RH  021%=      5-min Rain = 0
KTA1 132004Z 15009KT 36/10 A2983 RMK A01 T03550096  RH  021%=      5-min Rain = 0
KTA1 132005Z 14008KT 36/09 A2983 RMK A01 T03560094  RH  020%=      5-min Rain = 0
KTA1 132006Z 12008KT 36/09 A2983 RMK A01 T03550094  RH  020%=      5-min Rain = 0
KTA1 132007Z 13011KT 36/10 A2983 RMK A01 T03550095  RH  020%=      5-min Rain = 0
KTA1 132008Z 14010G15KT 36/09 A2983 RMK A01 T03570094  RH  020%=      5-min Rain = 0
KTA1 132009Z 15007G12KT 36/10 A2983 RMK A01 T03550095  RH  021%=      5-min Rain = 0
KTA1 132010Z 14014KT 36/10 A2983 RMK A01 T03550098  RH  021%=      5-min Rain = 0
KTA1 132011Z 12012KT 36/10 A2983 RMK A01 T03580096  RH  020%=      5-min Rain = 0
KTA1 132012Z 13011KT 36/10 A2983 RMK A01 T03570096  RH  020%=      5-min Rain = 0
KTA1 132013Z 13012KT 36/09 A2983 RMK A01 T03570094  RH  020%=      5-min Rain = 0
KTA1 132014Z 13010KT 36/09 A2983 RMK A01 T03580091  RH  020%=      5-min Rain = 0
KTA1 132015Z 15013KT 36/09 A2983 RMK A01 T03580091  RH  020%=      5-min Rain = 0
KTA1 132016Z 15012KT 36/09 A2983 RMK A01 T03590088  RH  019%=      5-min Rain = 0
KTA1 132017Z 15009G14KT 36/09 A2983 RMK A01 T03580086  RH  019%=      5-min Rain = 0
KTA1 132018Z 14007G12KT 36/09 A2983 RMK A01 T03550086  RH  019%=      5-min Rain = 0
KTA1 132019Z 13007KT 35/09 A2982 RMK A01 T03540086  RH  019%=      5-min Rain = 0
KTA1 132020Z 13008KT 35/09 A2982 RMK A01 T03540089  RH  020%=      5-min Rain = 0
KTA1 132021Z 14006KT 36/09 A2982 RMK A01 T03550088  RH  020%=      5-min Rain = 0
KTA1 132022Z 16006KT 36/09 A2982 RMK A01 T03560089  RH  020%=      5-min Rain = 0
KTA1 132023Z 17010KT 36/09 A2982 RMK A01 T03580088  RH  019%=      5-min Rain = 0
KTA1 132024Z 19007KT 36/08 A2982 RMK A01 T03610083  RH  018%=      5-min Rain = 0
KTA1 132025Z 20006KT 36/09 A2982 RMK A01 T03590085  RH  019%=      5-min Rain = 0
KTA1 132026Z 21003KT 36/08 A2982 RMK A01 T03570084  RH  019%=      5-min Rain = 0
KTA1 132027Z 17004KT 36/09 A2982 RMK A01 T03550085  RH  019%=      5-min Rain = 0
KTA1 132028Z 16007KT 36/09 A2982 RMK A01 T03560088  RH  020%=      5-min Rain = 0
KTA1 132029Z 14010KT 36/09 A2982 RMK A01 T03590086  RH  019%=      5-min Rain = 0
KTA1 132030Z 15009KT 36/08 A2982 RMK A01 T03610082  RH  018%=      5-min Rain = 0
KTA1 132031Z 16010KT 37/08 A2982 RMK A01 T03650084  RH  018%=      5-min Rain = 0
KTA1 132032Z 15008KT 37/08 A2982 RMK A01 T03660084  RH  018%=      5-min Rain = 0
KTA1 132033Z 14009KT 37/08 A2982 RMK A01 T03660083  RH  018%=      5-min Rain = 0
KTA1 132034Z 16007KT 37/08 A2982 RMK A01 T03660084  RH  018%=      5-min Rain = 0
KTA1 132035Z 16007KT 37/09 A2982 RMK A01 T03660085  RH  018%=      5-min Rain = 0
KTA1 132036Z 16009KT 37/08 A2982 RMK A01 T03670081  RH  017%=      5-min Rain = 0
KTA1 132037Z 14008KT 37/08 A2982 RMK A01 T03660082  RH  018%=      5-min Rain = 0
KTA1 132038Z 16005KT 36/08 A2982 RMK A01 T03640082  RH  018%=      5-min Rain = 0
KTA1 132039Z 20007KT 36/08 A2982 RMK A01 T03630081  RH  018%=      5-min Rain = 0
KTA1 132040Z 20009KT 36/08 A2982 RMK A01 T03630076  RH  017%=      5-min Rain = 0
KTA1 132041Z 20007KT 36/08 A2982 RMK A01 T03630075  RH  017%=      5-min Rain = 0
KTA1 132042Z 20005KT 36/07 A2982 RMK A01 T03610074  RH  017%=      5-min Rain = 0
KTA1 132043Z 19004KT 36/08 A2982 RMK A01 T03600076  RH  018%=      5-min Rain = 0
KTA1 132044Z 19003KT 36/08 A2982 RMK A01 T03620075  RH  017%=      5-min Rain = 0
KTA1 132045Z 12007G12KT 36/08 A2982 RMK A01 T03620077  RH  018%=      5-min Rain = 0
KTA1 132046Z 16010KT 36/08 A2981 RMK A01 T03630080  RH  018%=      5-min Rain = 0
KTA1 132047Z 18006KT 36/08 A2981 RMK A01 T03640078  RH  017%=      5-min Rain = 0
KTA1 132048Z 14010KT 36/08 A2982 RMK A01 T03630080  RH  018%=      5-min Rain = 0
KTA1 132049Z 13008KT 36/08 A2981 RMK A01 T03630080  RH  018%=      5-min Rain = 0
KTA1 132050Z 13011KT 36/08 A2981 RMK A01 T03620080  RH  018%=      5-min Rain = 0
KTA1 132051Z 17008KT 36/08 A2981 RMK A01 T03620080  RH  018%=      5-min Rain = 0
KTA1 132052Z 17009KT 36/08 A2981 RMK A01 T03640081  RH  018%=      5-min Rain = 0
KTA1 132053Z 17008KT 37/08 A2981 RMK A01 T03650077  RH  017%=      5-min Rain = 0
KTA1 132054Z 15007KT 36/08 A2981 RMK A01 T03620077  RH  017%=      5-min Rain = 0
KTA1 132055Z 15007KT 36/08 A2981 RMK A01 T03610077  RH  018%=      5-min Rain = 0
KTA1 132056Z 18011KT 36/08 A2981 RMK A01 T03620080  RH  018%=      5-min Rain = 0
KTA1 132057Z 20009KT 36/08 A2981 RMK A01 T03630078  RH  018%=      5-min Rain = 0
KTA1 132058Z 21008KT 36/08 A2981 RMK A01 T03620080  RH  018%=      5-min Rain = 0
KTA1 132059Z 22009KT 37/08 A2981 RMK A01 T03650081  RH  018%=      5-min Rain = 0
KTA1 132100Z 22010KT 37/08 A2981 RMK A01 T03670079  RH  017%=      5-min Rain = 0
KTA1 132101Z 22009KT 36/08 A2981 RMK A01 T03640077  RH  017%=      5-min Rain = 0
KTA1 132102Z 23008KT 36/08 A2981 RMK A01 T03620078  RH  018%=      5-min Rain = 0
KTA1 132103Z 21007KT 36/08 A2981 RMK A01 T03620078  RH  018%=      5-min Rain = 0
KTA1 132104Z 16006KT 36/08 A2981 RMK A01 T03620078  RH  018%=      5-min Rain = 0
KTA1 132105Z 17010KT 36/08 A2981 RMK A01 T03620078  RH  018%=      5-min Rain = 0
KTA1 132106Z 17010KT 36/08 A2981 RMK A01 T03640077  RH  017%=      5-min Rain = 0
KTA1 132107Z 15009KT 36/08 A2981 RMK A01 T03630077  RH  017%=      5-min Rain = 0
KTA1 132108Z 14005KT 36/08 A2981 RMK A01 T03630077  RH  017%=      5-min Rain = 0
KTA1 132109Z 13006KT 36/08 A2981 RMK A01 T03620076  RH  017%=      5-min Rain = 0
KTA1 132110Z 13006KT 36/08 A2981 RMK A01 T03620077  RH  017%=      5-min Rain = 0
KTA1 132111Z 13005KT 36/08 A2981 RMK A01 T03620076  RH  017%=      5-min Rain = 0
KTA1 132112Z 13007KT 36/08 A2981 RMK A01 T03610078  RH  018%=      5-min Rain = 0
KTA1 132113Z 14007KT 36/08 A2981 RMK A01 T03620079  RH  018%=      5-min Rain = 0
KTA1 132114Z 11006KT 36/08 A2981 RMK A01 T03620078  RH  018%=      5-min Rain = 0
KTA1 132115Z 12007KT 36/08 A2981 RMK A01 T03620080  RH  018%=      5-min Rain = 0
KTA1 132116Z 15009KT 36/08 A2981 RMK A01 T03620081  RH  018%=      5-min Rain = 0
KTA1 132117Z 15009KT 37/08 A2981 RMK A01 T03660083  RH  018%=      5-min Rain = 0
KTA1 132118Z 18009KT 37/08 A2981 RMK A01 T03680082  RH  017%=      5-min Rain = 0
KTA1 132119Z 19008KT 37/08 A2981 RMK A01 T03670080  RH  017%=      5-min Rain = 0
KTA1 132120Z 18007KT 37/08 A2981 RMK A01 T03670081  RH  017%=      5-min Rain = 0
KTA1 132121Z 18007KT 37/08 A2981 RMK A01 T03670080  RH  017%=      5-min Rain = 0
KTA1 132122Z 19004KT 37/08 A2981 RMK A01 T03650078  RH  017%=      5-min Rain = 0
KTA1 132123Z 23002KT 36/08 A2981 RMK A01 T03620075  RH  017%=      5-min Rain = 0
KTA1 132124Z 21003KT 36/08 A298 RMK A01 T03590076  RH  018%=      5-min Rain = 0
KTA1 132125Z 24004KT 36/08 A298 RMK A01 T03590076  RH  018%=      5-min Rain = 0
KTA1 132126Z 15005KT 36/08 A298 RMK A01 T03590078  RH  018%=      5-min Rain = 0
KTA1 132127Z 14007KT 36/08 A298 RMK A01 T03630080  RH  018%=      5-min Rain = 0
KTA1 132128Z 15009KT 37/08 A298 RMK A01 T03680082  RH  018%=      5-min Rain = 0
KTA1 132129Z 16010KT 37/08 A298 RMK A01 T03690080  RH  017%=      5-min Rain = 0
KTA1 132130Z 17006KT 37/08 A298 RMK A01 T03660076  RH  017%=      5-min Rain = 0
KTA1 132131Z 14005KT 36/08 A298 RMK A01 T03620079  RH  018%=      5-min Rain = 0
KTA1 132132Z 14010KT 36/08 A298 RMK A01 T03640080  RH  018%=      5-min Rain = 0
KTA1 132133Z 14011KT 37/08 A298 RMK A01 T03660079  RH  017%=      5-min Rain = 0
KTA1 132134Z 16011KT 37/08 A298 RMK A01 T03670079  RH  017%=      5-min Rain = 0
KTA1 132135Z 18013KT 37/08 A298 RMK A01 T03670078  RH  017%=      5-min Rain = 0
KTA1 132136Z 17011KT 37/08 A298 RMK A01 T03650077  RH  017%=      5-min Rain = 0
KTA1 132137Z 16011KT 36/08 A298 RMK A01 T03640077  RH  017%=      5-min Rain = 0
KTA1 132138Z 15010KT 36/08 A298 RMK A01 T03620078  RH  018%=      5-min Rain = 0
KTA1 132139Z 17006KT 36/08 A298 RMK A01 T03620077  RH  017%=      5-min Rain = 0
KTA1 132140Z 17006KT 36/08 A298 RMK A01 T03630076  RH  017%=      5-min Rain = 0
KTA1 132141Z 14011KT 36/08 A298 RMK A01 T03620077  RH  018%=      5-min Rain = 0
KTA1 132142Z 14010KT 36/08 A298 RMK A01 T03630077  RH  017%=      5-min Rain = 0
KTA1 132143Z 14009KT 36/08 A298 RMK A01 T03630076  RH  017%=      5-min Rain = 0
KTA1 132144Z 14008KT 36/08 A298 RMK A01 T03620077  RH  017%=      5-min Rain = 0
KTA1 132145Z 13008KT 36/08 A298 RMK A01 T03630078  RH  018%=      5-min Rain = 0
KTA1 132146Z 14010KT 37/08 A298 RMK A01 T03650079  RH  017%=      5-min Rain = 0
KTA1 132147Z 13010KT 37/08 A298 RMK A01 T03660079  RH  017%=      5-min Rain = 0
KTA1 132148Z 12008KT 37/08 A298 RMK A01 T03650076  RH  017%=      5-min Rain = 0
KTA1 132149Z 12007KT 36/08 A298 RMK A01 T03630076  RH  017%=      5-min Rain = 0
KTA1 132150Z 11005KT 36/08 A298 RMK A01 T03620077  RH  017%=      5-min Rain = 0
KTA1 132151Z 12008KT 36/08 A298 RMK A01 T03640079  RH  018%=      5-min Rain = 0
KTA1 132152Z 11011KT 37/08 A298 RMK A01 T03650078  RH  017%=      5-min Rain = 0
KTA1 132153Z 11007KT 36/08 A298 RMK A01 T03630075  RH  017%=      5-min Rain = 0
KTA1 132154Z 11011KT 36/08 A298 RMK A01 T03620077  RH  018%=      5-min Rain = 0
KTA1 132155Z 11009KT 36/08 A2979 RMK A01 T03620076  RH  017%=      5-min Rain = 0
KTA1 132156Z 11009KT 36/08 A2979 RMK A01 T03640075  RH  017%=      5-min Rain = 0
KTA1 132157Z 10008KT 36/08 A2979 RMK A01 T03630075  RH  017%=      5-min Rain = 0
KTA1 132158Z 12010KT 36/08 A2979 RMK A01 T03630076  RH  017%=      5-min Rain = 0
KTA1 132159Z 16008KT 36/08 A2979 RMK A01 T03640077  RH  017%=      5-min Rain = 0
KTA1 132200Z 15008KT 37/08 A2979 RMK A01 T03650078  RH  017%=      5-min Rain = 0
KTA1 132201Z 15009KT 37/08 A2979 RMK A01 T03660079  RH  017%=      5-min Rain = 0
KTA1 132202Z 16008KT 37/08 A2979 RMK A01 T03680077  RH  017%=      5-min Rain = 0
KTA1 132203Z 16007KT 37/08 A2979 RMK A01 T03680077  RH  017%=      5-min Rain = 0
KTA1 132204Z 14008KT 37/08 A2979 RMK A01 T03670076  RH  017%=      5-min Rain = 0
KTA1 132205Z 14010KT 37/08 A2979 RMK A01 T03660077  RH  017%=      5-min Rain = 0
KTA1 132206Z 16010KT 37/08 A2979 RMK A01 T03670078  RH  017%=      5-min Rain = 0
KTA1 132207Z 17006KT 37/08 A2979 RMK A01 T03680075  RH  017%=      5-min Rain = 0
KTA1 132208Z 14008KT 37/08 A2979 RMK A01 T03680076  RH  017%=      5-min Rain = 0
KTA1 132209Z 15007KT 37/08 A2979 RMK A01 T03670075  RH  017%=      5-min Rain = 0
KTA1 132210Z 13008KT 37/08 A2979 RMK A01 T03660076  RH  017%=      5-min Rain = 0
KTA1 132211Z 13009KT 37/08 A2979 RMK A01 T03650076  RH  017%=      5-min Rain = 0
KTA1 132212Z 11010KT 37/08 A2979 RMK A01 T03650075  RH  017%=      5-min Rain = 0
KTA1 132213Z 11007KT 37/08 A2979 RMK A01 T03650075  RH  017%=      5-min Rain = 0
KTA1 132214Z 10006KT 36/07 A2979 RMK A01 T03640074  RH  017%=      5-min Rain = 0
KTA1 132215Z 13006KT 36/08 A2979 RMK A01 T03640076  RH  017%=      5-min Rain = 0
KTA1 132216Z 13008G13KT 36/08 A2979 RMK A01 T03640076  RH  017%=      5-min Rain = 0
KTA1 132217Z 12012KT 37/08 A2979 RMK A01 T03650077  RH  017%=      5-min Rain = 0
KTA1 132218Z 15009KT 37/08 A2979 RMK A01 T03660077  RH  017%=      5-min Rain = 0
KTA1 132219Z 15014KT 37/08 A2979 RMK A01 T03670078  RH  017%=      5-min Rain = 0
KTA1 132220Z 15012KT 37/08 A2979 RMK A01 T03670077  RH  017%=      5-min Rain = 0
KTA1 132221Z 16010KT 37/08 A2979 RMK A01 T03650076  RH  017%=      5-min Rain = 0
KTA1 132222Z 15009KT 36/08 A2979 RMK A01 T03640077  RH  017%=      5-min Rain = 0
KTA1 132223Z 13010KT 36/08 A2979 RMK A01 T03640075  RH  017%=      5-min Rain = 0
KTA1 132224Z 13008KT 36/08 A2979 RMK A01 T03640075  RH  017%=      5-min Rain = 0
KTA1 132225Z 13008KT 36/08 A2979 RMK A01 T03630075  RH  017%=      5-min Rain = 0
KTA1 132226Z 13008KT 36/07 A2979 RMK A01 T03630074  RH  017%=      5-min Rain = 0
KTA1 132227Z 12007KT 36/08 A2979 RMK A01 T03620075  RH  017%=      5-min Rain = 0
KTA1 132228Z 11008KT 36/08 A2979 RMK A01 T03630075  RH  017%=      5-min Rain = 0
KTA1 132229Z 11007KT 36/08 A2979 RMK A01 T03640075  RH  017%=      5-min Rain = 0
KTA1 132230Z 11005KT 36/07 A2979 RMK A01 T03630074  RH  017%=      5-min Rain = 0
KTA1 132231Z 12005KT 36/07 A2979 RMK A01 T03620074  RH  017%=      5-min Rain = 0
KTA1 132232Z 12007KT 36/08 A2979 RMK A01 T03620075  RH  017%=      5-min Rain = 0
KTA1 132233Z 14007KT 36/07 A2979 RMK A01 T03620074  RH  017%=      5-min Rain = 0
KTA1 132234Z 13007KT 36/07 A2979 RMK A01 T03610074  RH  017%=      5-min Rain = 0
KTA1 132235Z 14008KT 36/08 A2979 RMK A01 T03620076  RH  017%=      5-min Rain = 0
KTA1 132236Z 15006KT 36/08 A2979 RMK A01 T03630075  RH  017%=      5-min Rain = 0
KTA1 132237Z 13004KT 36/07 A2979 RMK A01 T03630074  RH  017%=      5-min Rain = 0
KTA1 132238Z 13005KT 36/07 A2979 RMK A01 T03630073  RH  017%=      5-min Rain = 0
KTA1 132239Z 11006KT 36/08 A2979 RMK A01 T03630075  RH  017%=      5-min Rain = 0
KTA1 132240Z 10007KT 36/08 A2979 RMK A01 T03620075  RH  017%=      5-min Rain = 0
KTA1 132241Z 10007KT 36/08 A2979 RMK A01 T03610076  RH  018%=      5-min Rain = 0
KTA1 132242Z 11008KT 36/08 A2979 RMK A01 T03610076  RH  017%=      5-min Rain = 0
KTA1 132243Z 11009KT 36/08 A2979 RMK A01 T03610076  RH  017%=      5-min Rain = 0
KTA1 132244Z 12009KT 36/08 A2979 RMK A01 T03620075  RH  017%=      5-min Rain = 0
KTA1 132245Z 12007KT 36/07 A2979 RMK A01 T03610074  RH  017%=      5-min Rain = 0
KTA1 132246Z 13007KT 36/08 A2979 RMK A01 T03610075  RH  017%=      5-min Rain = 0
KTA1 132247Z 14011KT 36/08 A2979 RMK A01 T03620075  RH  017%=      5-min Rain = 0
KTA1 132248Z 13010KT 36/07 A2979 RMK A01 T03620074  RH  017%=      5-min Rain = 0
KTA1 132249Z 13010KT 36/07 A2979 RMK A01 T03620074  RH  017%=      5-min Rain = 0
KTA1 132250Z 12007KT 36/08 A2979 RMK A01 T03620075  RH  017%=      5-min Rain = 0
KTA1 132251Z 13009KT 36/08 A2979 RMK A01 T03630075  RH  017%=      5-min Rain = 0
KTA1 132252Z 13008KT 36/07 A2979 RMK A01 T03640074  RH  017%=      5-min Rain = 0
KTA1 132253Z 13006KT 36/07 A2979 RMK A01 T03640073  RH  017%=      5-min Rain = 0
KTA1 132254Z 12007KT 36/07 A2978 RMK A01 T03630073  RH  017%=      5-min Rain = 0
KTA1 132255Z 13006KT 36/07 A2978 RMK A01 T03620073  RH  017%=      5-min Rain = 0
KTA1 132256Z 12005KT 36/07 A2978 RMK A01 T03610073  RH  017%=      5-min Rain = 0
KTA1 132257Z 13007KT 36/07 A2978 RMK A01 T03600074  RH  017%=      5-min Rain = 0
KTA1 132258Z 13007KT 36/07 A2978 RMK A01 T03600074  RH  017%=      5-min Rain = 0
KTA1 132259Z 12007KT 36/07 A2978 RMK A01 T03610072  RH  017%=      5-min Rain = 0
KTA1 132300Z 13009KT 36/07 A2978 RMK A01 T03600073  RH  017%=      5-min Rain = 0
KTA1 132301Z 13008KT 36/07 A2978 RMK A01 T03600074  RH  017%=      5-min Rain = 0
KTA1 132302Z 14007KT 36/07 A2978 RMK A01 T03610073  RH  017%=      5-min Rain = 0
KTA1 132303Z 12007KT 36/07 A2978 RMK A01 T03610074  RH  017%=      5-min Rain = 0
KTA1 132304Z 12007KT 36/08 A2978 RMK A01 T03610076  RH  018%=      5-min Rain = 0
KTA1 132305Z 11009KT 36/08 A2978 RMK A01 T03620075  RH  017%=      5-min Rain = 0
KTA1 132306Z 12009KT 36/07 A2978 RMK A01 T03610074  RH  017%=      5-min Rain = 0
KTA1 132307Z 12009KT 36/08 A2978 RMK A01 T03600077  RH  018%=      5-min Rain = 0
KTA1 132308Z 14010KT 36/08 A2978 RMK A01 T03600077  RH  018%=      5-min Rain = 0
KTA1 132309Z 14009KT 36/07 A2978 RMK A01 T03610073  RH  017%=      5-min Rain = 0
KTA1 132310Z 13009KT 36/07 A2978 RMK A01 T03610073  RH  017%=      5-min Rain = 0
KTA1 132311Z 14008KT 36/07 A2978 RMK A01 T03600073  RH  017%=      5-min Rain = 0
KTA1 132312Z 14007KT 36/07 A2978 RMK A01 T03600074  RH  017%=      5-min Rain = 0
KTA1 132313Z 14006KT 36/07 A2978 RMK A01 T03600074  RH  017%=      5-min Rain = 0
KTA1 132314Z 13008KT 36/08 A2978 RMK A01 T03610076  RH  017%=      5-min Rain = 0
KTA1 132315Z 13010KT 36/08 A2978 RMK A01 T03620075  RH  017%=      5-min Rain = 0
KTA1 132316Z 13011KT 36/08 A2978 RMK A01 T03610076  RH  017%=      5-min Rain = 0
KTA1 132317Z 12009KT 36/08 A2978 RMK A01 T03600075  RH  017%=      5-min Rain = 0
KTA1 132318Z 11008KT 36/07 A2978 RMK A01 T03600074  RH  017%=      5-min Rain = 0
KTA1 132319Z 12008KT 36/08 A2978 RMK A01 T03600075  RH  017%=      5-min Rain = 0
KTA1 132320Z 14008KT 36/08 A2978 RMK A01 T03590075  RH  018%=      5-min Rain = 0
KTA1 132321Z 14008KT 36/07 A2978 RMK A01 T03590074  RH  017%=      5-min Rain = 0
KTA1 132322Z 13007KT 36/07 A2978 RMK A01 T03600074  RH  017%=      5-min Rain = 0
KTA1 132323Z 12008KT 36/07 A2978 RMK A01 T03600074  RH  017%=      5-min Rain = 0
KTA1 132324Z 12007KT 36/07 A2978 RMK A01 T03600073  RH  017%=      5-min Rain = 0
KTA1 132325Z 13008KT 36/07 A2978 RMK A01 T03590073  RH  017%=      5-min Rain = 0
KTA1 132326Z 12009KT 36/07 A2978 RMK A01 T03590074  RH  017%=      5-min Rain = 0
KTA1 132327Z 13010KT 36/08 A2978 RMK A01 T03580075  RH  018%=      5-min Rain = 0
KTA1 132328Z 13010KT 36/08 A2978 RMK A01 T03580077  RH  018%=      5-min Rain = 0
KTA1 132329Z 12009KT 36/08 A2978 RMK A01 T03590080  RH  018%=      5-min Rain = 0
KTA1 132330Z 12010KT 36/08 A2978 RMK A01 T03590079  RH  018%=      5-min Rain = 0
KTA1 132331Z 11009KT 36/08 A2978 RMK A01 T03580077  RH  018%=      5-min Rain = 0
KTA1 132332Z 11008KT 36/08 A2978 RMK A01 T03570077  RH  018%=      5-min Rain = 0
KTA1 132333Z 11010KT 36/08 A2978 RMK A01 T03570079  RH  018%=      5-min Rain = 0
KTA1 132334Z 13010KT 36/08 A2978 RMK A01 T03570079  RH  018%=      5-min Rain = 0
KTA1 132335Z 12008KT 36/08 A2978 RMK A01 T03570076  RH  018%=      5-min Rain = 0
KTA1 132336Z 12008KT 36/08 A2978 RMK A01 T03560079  RH  018%=      5-min Rain = 0
KTA1 132337Z 12008KT 36/08 A2978 RMK A01 T03570077  RH  018%=      5-min Rain = 0
KTA1 132338Z 12008KT 36/08 A2978 RMK A01 T03580076  RH  018%=      5-min Rain = 0
KTA1 132339Z 12007KT 36/08 A2978 RMK A01 T03570078  RH  018%=      5-min Rain = 0
KTA1 132340Z 12008KT 36/08 A2978 RMK A01 T03570080  RH  018%=      5-min Rain = 0
KTA1 132341Z 13007KT 36/08 A2978 RMK A01 T03560079  RH  018%=      5-min Rain = 0
KTA1 132342Z 13008KT 36/08 A2978 RMK A01 T03560081  RH  019%=      5-min Rain = 0
KTA1 132343Z 14008KT 36/08 A2978 RMK A01 T03560080  RH  018%=      5-min Rain = 0
KTA1 132344Z 14007KT 36/08 A2978 RMK A01 T03560079  RH  018%=      5-min Rain = 0
KTA1 132345Z 15008KT 36/08 A2978 RMK A01 T03570077  RH  018%=      5-min Rain = 0
KTA1 132346Z 14008KT 36/08 A2978 RMK A01 T03570077  RH  018%=      5-min Rain = 0
KTA1 132347Z 14008KT 36/08 A2978 RMK A01 T03560076  RH  018%=      5-min Rain = 0
KTA1 132348Z 13007KT 36/08 A2978 RMK A01 T03570077  RH  018%=      5-min Rain = 0
KTA1 132349Z 13007KT 36/08 A2978 RMK A01 T03570077  RH  018%=      5-min Rain = 0
KTA1 132350Z 12008KT 36/08 A2978 RMK A01 T03570076  RH  018%=      5-min Rain = 0
KTA1 132351Z 12009KT 36/08 A2978 RMK A01 T03560076  RH  018%=      5-min Rain = 0
KTA1 132352Z 12009KT 36/08 A2978 RMK A01 T03550077  RH  018%=      5-min Rain = 0
KTA1 132353Z 12009KT 35/08 A2978 RMK A01 T03540078  RH  018%=      5-min Rain = 0
KTA1 132354Z 12008KT 35/08 A2978 RMK A01 T03540079  RH  019%=      5-min Rain = 0
KTA1 132355Z 12007KT 35/08 A2978 RMK A01 T03530081  RH  019%=      5-min Rain = 0
KTA1 132356Z 12008KT 35/08 A2978 RMK A01 T03520082  RH  019%=      5-min Rain = 0
KTA1 132357Z 13009KT 35/08 A2978 RMK A01 T03520077  RH  019%=      5-min Rain = 0
KTA1 132358Z 12010KT 35/08 A2978 RMK A01 T03520078  RH  019%=      5-min Rain = 0
KTA1 132359Z 12010KT 35/08 A2978 RMK A01 T03510078  RH  019%=      5-min Rain = 0
KTA1 140000Z 13009KT 35/08 A2978 RMK A01 T03510078  RH  019%=      5-min Rain = 0
KTA1 140001Z 13008KT 35/08 A2978 RMK A01 T03510078  RH  019%=      5-min Rain = 0
KTA1 140002Z 13007KT 35/08 A2978 RMK A01 T03510078  RH  019%=      5-min Rain = 0
KTA1 140003Z 13009KT 35/08 A2978 RMK A01 T03510079  RH  019%=      5-min Rain = 0
KTA1 140004Z 12008KT 35/08 A2978 RMK A01 T03500078  RH  019%=      5-min Rain = 0
KTA1 140005Z 12009KT 35/08 A2978 RMK A01 T03500079  RH  019%=      5-min Rain = 0
KTA1 140006Z 12009KT 35/08 A2978 RMK A01 T03490079  RH  019%=      5-min Rain = 0
KTA1 140007Z 12008KT 35/08 A2978 RMK A01 T03490081  RH  019%=      5-min Rain = 0
KTA1 140008Z 12008KT 35/08 A2978 RMK A01 T03480082  RH  020%=      5-min Rain = 0
KTA1 140009Z 12008KT 35/08 A2978 RMK A01 T03470083  RH  020%=      5-min Rain = 0
KTA1 140010Z 12008KT 35/08 A2978 RMK A01 T03460084  RH  020%=      5-min Rain = 0
KTA1 140011Z 12008KT 35/08 A2978 RMK A01 T03450084  RH  020%=      5-min Rain = 0
KTA1 140012Z 12008KT 35/08 A2978 RMK A01 T03450084  RH  020%=      5-min Rain = 0
KTA1 140013Z 12008KT 34/09 A2978 RMK A01 T03440085  RH  020%=      5-min Rain = 0
KTA1 140014Z 12007KT 34/08 A2978 RMK A01 T03430084  RH  020%=      5-min Rain = 0
KTA1 140015Z 12007KT 34/09 A2978 RMK A01 T03430085  RH  021%=      5-min Rain = 0
KTA1 140016Z 12007KT 34/08 A2978 RMK A01 T03420083  RH  020%=      5-min Rain = 0
KTA1 140017Z 12007KT 34/08 A2978 RMK A01 T03420083  RH  020%=      5-min Rain = 0
KTA1 140018Z 12007KT 34/08 A2978 RMK A01 T03420083  RH  020%=      5-min Rain = 0
KTA1 140019Z 11008KT 34/08 A2978 RMK A01 T03410082  RH  020%=      5-min Rain = 0
KTA1 140020Z 11009KT 34/08 A2978 RMK A01 T03410082  RH  020%=      5-min Rain = 0
KTA1 140021Z 11009KT 34/08 A2978 RMK A01 T03400081  RH  020%=      5-min Rain = 0
KTA1 140022Z 11008KT 34/08 A2978 RMK A01 T03400081  RH  020%=      5-min Rain = 0
KTA1 140023Z 12007KT 34/08 A2978 RMK A01 T03400082  RH  020%=      5-min Rain = 0
KTA1 140024Z 12007KT 34/08 A2978 RMK A01 T03390083  RH  021%=      5-min Rain = 0
KTA1 140025Z 12007KT 34/08 A2978 RMK A01 T03380083  RH  021%=      5-min Rain = 0
KTA1 140026Z 12007KT 34/08 A2978 RMK A01 T03380083  RH  021%=      5-min Rain = 0
KTA1 140027Z 12007KT 34/08 A2978 RMK A01 T03370084  RH  021%=      5-min Rain = 0
KTA1 140028Z 12007KT 34/08 A2978 RMK A01 T03360084  RH  021%=      5-min Rain = 0
KTA1 140029Z 12007KT 34/09 A2978 RMK A01 T03350085  RH  021%=      5-min Rain = 0
KTA1 140030Z 12007KT 33/09 A2978 RMK A01 T03340085  RH  022%=      5-min Rain = 0
KTA1 140031Z 12008KT 33/08 A2978 RMK A01 T03330084  RH  022%=      5-min Rain = 0
KTA1 140032Z 12007KT 33/08 A2978 RMK A01 T03330083  RH  021%=      5-min Rain = 0
KTA1 140033Z 12007KT 33/08 A2978 RMK A01 T03330084  RH  022%=      5-min Rain = 0
KTA1 140034Z 12008KT 33/08 A2978 RMK A01 T03320084  RH  022%=      5-min Rain = 0
KTA1 140035Z 12008KT 33/09 A2978 RMK A01 T03310085  RH  022%=      5-min Rain = 0
KTA1 140036Z 12007KT 33/09 A2978 RMK A01 T03300085  RH  022%=      5-min Rain = 0
KTA1 140037Z 12008KT 33/09 A2978 RMK A01 T03290086  RH  022%=      5-min Rain = 0
KTA1 140038Z 11007KT 33/09 A2978 RMK A01 T03280085  RH  022%=      5-min Rain = 0
KTA1 140039Z 12007KT 33/09 A2978 RMK A01 T03270085  RH  022%=      5-min Rain = 0
KTA1 140040Z 12007KT 33/08 A2978 RMK A01 T03260084  RH  022%=      5-min Rain = 0
KTA1 140041Z 12006KT 33/08 A2978 RMK A01 T03260084  RH  022%=      5-min Rain = 0
KTA1 140042Z 12007KT 33/08 A2978 RMK A01 T03250084  RH  023%=      5-min Rain = 0
KTA1 140043Z 12007KT 32/08 A2978 RMK A01 T03240084  RH  023%=      5-min Rain = 0
KTA1 140044Z 12007KT 32/08 A2978 RMK A01 T03240084  RH  023%=      5-min Rain = 0
KTA1 140045Z 12007KT 32/08 A2978 RMK A01 T03220083  RH  023%=      5-min Rain = 0
KTA1 140046Z 12007KT 32/08 A2978 RMK A01 T03220084  RH  023%=      5-min Rain = 0
KTA1 140047Z 12007KT 32/08 A2978 RMK A01 T03210083  RH  023%=      5-min Rain = 0
KTA1 140048Z 12007KT 32/08 A2978 RMK A01 T03200083  RH  023%=      5-min Rain = 0
KTA1 140049Z 12007KT 32/08 A2978 RMK A01 T03190083  RH  023%=      5-min Rain = 0
KTA1 140050Z 12007KT 32/08 A2978 RMK A01 T03180083  RH  023%=      5-min Rain = 0
KTA1 140051Z 12006KT 32/08 A2978 RMK A01 T03170083  RH  023%=      5-min Rain = 0
KTA1 140052Z 12006KT 32/08 A2978 RMK A01 T03160083  RH  024%=      5-min Rain = 0
KTA1 140053Z 12007KT 32/08 A2978 RMK A01 T03150083  RH  024%=      5-min Rain = 0
KTA1 140054Z 12007KT 31/08 A2978 RMK A01 T03140083  RH  024%=      5-min Rain = 0
KTA1 140055Z 12007KT 31/08 A2978 RMK A01 T03130083  RH  024%=      5-min Rain = 0
KTA1 140056Z 12007KT 31/08 A2978 RMK A01 T03130083  RH  024%=      5-min Rain = 0
KTA1 140057Z 12007KT 31/08 A2978 RMK A01 T03120083  RH  024%=      5-min Rain = 0
KTA1 140058Z 12006KT 31/08 A2978 RMK A01 T03120082  RH  024%=      5-min Rain = 0
KTA1 140059Z 12006KT 31/08 A2978 RMK A01 T03120083  RH  024%=      5-min Rain = 0
KTA1 140100Z 12006KT 31/08 A2978 RMK A01 T03110083  RH  024%=      5-min Rain = 0
KTA1 140101Z 11006KT 31/08 A2978 RMK A01 T03100084  RH  024%=      5-min Rain = 0
KTA1 140102Z 12006KT 31/08 A2978 RMK A01 T03080084  RH  025%=      5-min Rain = 0
KTA1 140103Z 12006KT 31/08 A2978 RMK A01 T03070084  RH  025%=      5-min Rain = 0
KTA1 140104Z 12006KT 31/08 A2978 RMK A01 T03050084  RH  025%=      5-min Rain = 0
KTA1 140105Z 12006KT 30/08 A2979 RMK A01 T03040084  RH  025%=      5-min Rain = 0
KTA1 140106Z 12006KT 30/08 A2979 RMK A01 T03020084  RH  026%=      5-min Rain = 0
KTA1 140107Z 12006KT 30/08 A2979 RMK A01 T03010084  RH  026%=      5-min Rain = 0
KTA1 140108Z 12006KT 30/08 A2979 RMK A01 T03000084  RH  026%=      5-min Rain = 0
KTA1 140109Z 12006KT 30/08 A2979 RMK A01 T03000084  RH  026%=      5-min Rain = 0
KTA1 140110Z 12006KT 30/08 A2978 RMK A01 T02990084  RH  026%=      5-min Rain = 0
KTA1 140111Z 12006KT 30/08 A2979 RMK A01 T02980084  RH  026%=      5-min Rain = 0
KTA1 140112Z 12006KT 30/08 A2979 RMK A01 T02980084  RH  026%=      5-min Rain = 0
KTA1 140113Z 12006KT 30/08 A2979 RMK A01 T02970084  RH  026%=      5-min Rain = 0
KTA1 140114Z 12006KT 30/08 A2979 RMK A01 T02970084  RH  026%=      5-min Rain = 0
KTA1 140115Z 12006KT 30/08 A2979 RMK A01 T02970084  RH  026%=      5-min Rain = 0
KTA1 140116Z 12006KT 30/08 A2979 RMK A01 T02960084  RH  027%=      5-min Rain = 0
KTA1 140117Z 12006KT 30/08 A2979 RMK A01 T02960084  RH  027%=      5-min Rain = 0
KTA1 140118Z 12006KT 30/08 A2979 RMK A01 T02950084  RH  027%=      5-min Rain = 0
KTA1 140119Z 12007KT 30/09 A2979 RMK A01 T02950085  RH  027%=      5-min Rain = 0
KTA1 140120Z 12007KT 29/09 A2979 RMK A01 T02940085  RH  027%=      5-min Rain = 0
KTA1 140121Z 12007KT 29/09 A2979 RMK A01 T02940086  RH  027%=      5-min Rain = 0
KTA1 140122Z 12007KT 29/09 A2979 RMK A01 T02930086  RH  027%=      5-min Rain = 0
KTA1 140123Z 12007KT 29/09 A2979 RMK A01 T02920085  RH  027%=      5-min Rain = 0
KTA1 140124Z 11007KT 29/09 A2979 RMK A01 T02920085  RH  027%=      5-min Rain = 0
KTA1 140125Z 11007KT 29/09 A2979 RMK A01 T02910085  RH  028%=      5-min Rain = 0
KTA1 140126Z 11007KT 29/09 A2979 RMK A01 T02900085  RH  028%=      5-min Rain = 0
KTA1 140127Z 11007KT 29/09 A2979 RMK A01 T02900085  RH  028%=      5-min Rain = 0
KTA1 140128Z 11007KT 29/09 A2979 RMK A01 T02890085  RH  028%=      5-min Rain = 0
KTA1 140129Z 11007KT 29/09 A2979 RMK A01 T02880085  RH  028%=      5-min Rain = 0
KTA1 140130Z 11007KT 29/09 A2979 RMK A01 T02880085  RH  028%=      5-min Rain = 0
KTA1 140131Z 11006KT 29/09 A2979 RMK A01 T02880085  RH  028%=      5-min Rain = 0
KTA1 140132Z 11006KT 29/09 A2979 RMK A01 T02870085  RH  028%=      5-min Rain = 0
KTA1 140133Z 12006KT 29/09 A2979 RMK A01 T02860086  RH  028%=      5-min Rain = 0
KTA1 140134Z 12006KT 29/09 A2979 RMK A01 T02850086  RH  029%=      5-min Rain = 0
KTA1 140135Z 12006KT 28/09 A2979 RMK A01 T02840086  RH  029%=      5-min Rain = 0
KTA1 140136Z 12006KT 28/09 A2979 RMK A01 T02830086  RH  029%=      5-min Rain = 0
KTA1 140137Z 12006KT 28/09 A2979 RMK A01 T02820085  RH  029%=      5-min Rain = 0
KTA1 140138Z 12006KT 28/09 A2979 RMK A01 T02820085  RH  029%=      5-min Rain = 0
KTA1 140139Z 12006KT 28/09 A2979 RMK A01 T02810085  RH  029%=      5-min Rain = 0
KTA1 140140Z 12006KT 28/09 A2979 RMK A01 T02810085  RH  029%=      5-min Rain = 0
KTA1 140141Z 12006KT 28/08 A2979 RMK A01 T02810084  RH  029%=      5-min Rain = 0
KTA1 140142Z 12006KT 28/09 A2979 RMK A01 T02810085  RH  029%=      5-min Rain = 0
KTA1 140143Z 12006KT 28/09 A2979 RMK A01 T02810085  RH  029%=      5-min Rain = 0
KTA1 140144Z 12006KT 28/09 A2979 RMK A01 T02810085  RH  029%=      5-min Rain = 0
KTA1 140145Z 12006KT 28/09 A2979 RMK A01 T02810085  RH  029%=      5-min Rain = 0
KTA1 140146Z 12006KT 28/09 A2979 RMK A01 T02810085  RH  029%=      5-min Rain = 0
KTA1 140147Z 11006KT 28/09 A298 RMK A01 T02800085  RH  029%=      5-min Rain = 0
KTA1 140148Z 11006KT 28/09 A298 RMK A01 T02800085  RH  029%=      5-min Rain = 0
KTA1 140149Z 11006KT 28/09 A298 RMK A01 T02800085  RH  029%=      5-min Rain = 0
KTA1 140150Z 11006KT 28/09 A298 RMK A01 T02800086  RH  029%=      5-min Rain = 0
KTA1 140151Z 12006KT 28/09 A298 RMK A01 T02800085  RH  029%=      5-min Rain = 0
KTA1 140152Z 12006KT 28/09 A298 RMK A01 T02790085  RH  030%=      5-min Rain = 0
KTA1 140153Z 12007KT 28/09 A298 RMK A01 T02790085  RH  030%=      5-min Rain = 0
KTA1 140154Z 12006KT 28/09 A298 RMK A01 T02790085  RH  029%=      5-min Rain = 0
KTA1 140155Z 12006KT 28/08 A298 RMK A01 T02790084  RH  029%=      5-min Rain = 0
KTA1 140156Z 12006KT 28/08 A298 RMK A01 T02790083  RH  029%=      5-min Rain = 0
KTA1 140157Z 12006KT 28/08 A298 RMK A01 T02790084  RH  029%=      5-min Rain = 0
KTA1 140158Z 12006KT 28/08 A298 RMK A01 T02790084  RH  029%=      5-min Rain = 0
KTA1 140159Z 12006KT 28/08 A298 RMK A01 T02790084  RH  029%=      5-min Rain = 0
KTA1 140200Z 12006KT 28/08 A298 RMK A01 T02780084  RH  029%=      5-min Rain = 0
KTA1 140201Z 12005KT 28/08 A298 RMK A01 T02780084  RH  029%=      5-min Rain = 0
KTA1 140202Z 12006KT 28/08 A298 RMK A01 T02770084  RH  030%=      5-min Rain = 0
KTA1 140203Z 12005KT 28/08 A298 RMK A01 T02770084  RH  030%=      5-min Rain = 0
KTA1 140204Z 12005KT 28/08 A298 RMK A01 T02760084  RH  030%=      5-min Rain = 0
KTA1 140205Z 12006KT 28/08 A298 RMK A01 T02750084  RH  030%=      5-min Rain = 0
KTA1 140206Z 12005KT 27/08 A298 RMK A01 T02740084  RH  030%=      5-min Rain = 0
KTA1 140207Z 12006KT 27/08 A298 RMK A01 T02740084  RH  030%=      5-min Rain = 0
KTA1 140208Z 12006KT 27/08 A298 RMK A01 T02730083  RH  030%=      5-min Rain = 0
KTA1 140209Z 12006KT 27/08 A298 RMK A01 T02720084  RH  030%=      5-min Rain = 0
KTA1 140210Z 12006KT 27/08 A298 RMK A01 T02720084  RH  031%=      5-min Rain = 0
KTA1 140211Z 12006KT 27/08 A298 RMK A01 T02710084  RH  031%=      5-min Rain = 0
KTA1 140212Z 12006KT 27/08 A2981 RMK A01 T02710084  RH  031%=      5-min Rain = 0
KTA1 140213Z 12006KT 27/08 A2981 RMK A01 T02700083  RH  031%=      5-min Rain = 0
KTA1 140214Z 12006KT 27/08 A2981 RMK A01 T02700083  RH  031%=      5-min Rain = 0
KTA1 140215Z 12006KT 27/08 A2981 RMK A01 T02690083  RH  031%=      5-min Rain = 0
KTA1 140216Z 12005KT 27/08 A2981 RMK A01 T02690083  RH  031%=      5-min Rain = 0
KTA1 140217Z 12005KT 27/08 A2981 RMK A01 T02690083  RH  031%=      5-min Rain = 0
KTA1 140218Z 12005KT 27/08 A2981 RMK A01 T02680082  RH  031%=      5-min Rain = 0
KTA1 140219Z 12006KT 27/08 A2981 RMK A01 T02680082  RH  031%=      5-min Rain = 0
KTA1 140220Z 12006KT 27/08 A2981 RMK A01 T02680082  RH  031%=      5-min Rain = 0
KTA1 140221Z 12006KT 27/08 A2981 RMK A01 T02680083  RH  031%=      5-min Rain = 0
KTA1 140222Z 12005KT 27/08 A2981 RMK A01 T02680083  RH  031%=      5-min Rain = 0
KTA1 140223Z 12005KT 27/08 A2981 RMK A01 T02680083  RH  031%=      5-min Rain = 0
KTA1 140224Z 12005KT 27/08 A2981 RMK A01 T02680083  RH  031%=      5-min Rain = 0
KTA1 140225Z 12005KT 27/08 A2981 RMK A01 T02670082  RH  031%=      5-min Rain = 0
KTA1 140226Z 12005KT 27/08 A2981 RMK A01 T02660082  RH  031%=      5-min Rain = 0
KTA1 140227Z 12005KT 27/08 A2981 RMK A01 T02660082  RH  031%=      5-min Rain = 0
KTA1 140228Z 12005KT 27/08 A2981 RMK A01 T02650082  RH  031%=      5-min Rain = 0
KTA1 140229Z 12005KT 27/08 A2981 RMK A01 T02650082  RH  031%=      5-min Rain = 0
KTA1 140230Z 12005KT 26/08 A2981 RMK A01 T02640082  RH  031%=      5-min Rain = 0
KTA1 140231Z 12005KT 26/08 A2981 RMK A01 T02640082  RH  031%=      5-min Rain = 0
KTA1 140232Z 12005KT 26/08 A2981 RMK A01 T02640082  RH  032%=      5-min Rain = 0
KTA1 140233Z 12005KT 26/08 A2981 RMK A01 T02630081  RH  032%=      5-min Rain = 0
KTA1 140234Z 13005KT 26/08 A2981 RMK A01 T02630081  RH  032%=      5-min Rain = 0
KTA1 140235Z 12005KT 26/08 A2981 RMK A01 T02630081  RH  032%=      5-min Rain = 0
KTA1 140236Z 12005KT 26/08 A2981 RMK A01 T02620081  RH  032%=      5-min Rain = 0
KTA1 140237Z 12005KT 26/08 A2981 RMK A01 T02620081  RH  032%=      5-min Rain = 0
KTA1 140238Z 12005KT 26/08 A2981 RMK A01 T02610081  RH  032%=      5-min Rain = 0
KTA1 140239Z 12005KT 26/08 A2981 RMK A01 T02600081  RH  032%=      5-min Rain = 0
KTA1 140240Z 12005KT 26/08 A2981 RMK A01 T02600081  RH  032%=      5-min Rain = 0
KTA1 140241Z 12005KT 26/08 A2981 RMK A01 T02590080  RH  032%=      5-min Rain = 0
KTA1 140242Z 12005KT 26/08 A2981 RMK A01 T02590080  RH  032%=      5-min Rain = 0
KTA1 140243Z 12005KT 26/08 A2981 RMK A01 T02590081  RH  032%=      5-min Rain = 0
KTA1 140244Z 12005KT 26/08 A2981 RMK A01 T02590080  RH  032%=      5-min Rain = 0
KTA1 140245Z 12005KT 26/08 A2981 RMK A01 T02590080  RH  032%=      5-min Rain = 0
KTA1 140246Z 12005KT 26/08 A2981 RMK A01 T02590080  RH  032%=      5-min Rain = 0
KTA1 140247Z 12005KT 26/08 A2982 RMK A01 T02580080  RH  032%=      5-min Rain = 0
KTA1 140248Z 12005KT 26/08 A2982 RMK A01 T02580080  RH  032%=      5-min Rain = 0
KTA1 140249Z 12006KT 26/08 A2982 RMK A01 T02580080  RH  032%=      5-min Rain = 0
KTA1 140250Z 12006KT 26/08 A2982 RMK A01 T02580080  RH  032%=      5-min Rain = 0
KTA1 140251Z 12006KT 26/08 A2982 RMK A01 T02580080  RH  032%=      5-min Rain = 0
KTA1 140252Z 12006KT 26/08 A2982 RMK A01 T02580080  RH  032%=      5-min Rain = 0
KTA1 140253Z 12007KT 26/08 A2982 RMK A01 T02580079  RH  032%=      5-min Rain = 0
KTA1 140254Z 12006KT 26/08 A2982 RMK A01 T02580079  RH  032%=      5-min Rain = 0
KTA1 140255Z 12006KT 26/08 A2982 RMK A01 T02580079  RH  032%=      5-min Rain = 0
KTA1 140256Z 12006KT 26/08 A2982 RMK A01 T02580079  RH  032%=      5-min Rain = 0
KTA1 140257Z 12006KT 26/08 A2982 RMK A01 T02580079  RH  032%=      5-min Rain = 0
KTA1 140258Z 12006KT 26/08 A2982 RMK A01 T02580078  RH  032%=      5-min Rain = 0
KTA1 140259Z 12006KT 26/08 A2982 RMK A01 T02580078  RH  032%=      5-min Rain = 0
KTA1 140300Z 12006KT 26/08 A2982 RMK A01 T02580078  RH  032%=      5-min Rain = 0
KTA1 140301Z 12006KT 26/08 A2982 RMK A01 T02580078  RH  032%=      5-min Rain = 0
KTA1 140302Z 11007KT 26/08 A2982 RMK A01 T02590078  RH  032%=      5-min Rain = 0
KTA1 140303Z 10008KT 26/08 A2982 RMK A01 T02590078  RH  032%=      5-min Rain = 0
KTA1 140304Z 09008KT 26/08 A2983 RMK A01 T02590079  RH  032%=      5-min Rain = 0
KTA1 140305Z 09007KT 26/08 A2983 RMK A01 T02590083  RH  033%=      5-min Rain = 0
KTA1 140306Z 09007KT 26/08 A2983 RMK A01 T02590084  RH  033%=      5-min Rain = 0
KTA1 140307Z 10008KT 26/08 A2983 RMK A01 T02600084  RH  033%=      5-min Rain = 0
KTA1 140308Z 10008KT 26/08 A2983 RMK A01 T02610083  RH  032%=      5-min Rain = 0
KTA1 140309Z 10008KT 26/08 A2983 RMK A01 T02620082  RH  032%=      5-min Rain = 0
KTA1 140310Z 10008KT 26/08 A2983 RMK A01 T02640081  RH  031%=      5-min Rain = 0
KTA1 140311Z 10008KT 27/08 A2983 RMK A01 T02650081  RH  031%=      5-min Rain = 0
KTA1 140312Z 09008KT 27/08 A2983 RMK A01 T02660080  RH  031%=      5-min Rain = 0
KTA1 140313Z 09008KT 27/08 A2983 RMK A01 T02660081  RH  031%=      5-min Rain = 0
KTA1 140314Z 10007KT 27/08 A2983 RMK A01 T02660082  RH  031%=      5-min Rain = 0
KTA1 140315Z 10007KT 26/08 A2983 RMK A01 T02640083  RH  032%=      5-min Rain = 0
KTA1 140316Z 10007KT 26/08 A2983 RMK A01 T02610083  RH  032%=      5-min Rain = 0
KTA1 140317Z 10007KT 26/08 A2983 RMK A01 T02590083  RH  033%=      5-min Rain = 0
KTA1 140318Z 10007KT 26/08 A2983 RMK A01 T02580082  RH  033%=      5-min Rain = 0
KTA1 140319Z 10007KT 26/08 A2983 RMK A01 T02580082  RH  033%=      5-min Rain = 0
KTA1 140320Z 10008KT 26/08 A2983 RMK A01 T02580082  RH  033%=      5-min Rain = 0
KTA1 140321Z 10007KT 26/08 A2983 RMK A01 T02590081  RH  032%=      5-min Rain = 0
KTA1 140322Z 11007KT 26/08 A2983 RMK A01 T02590082  RH  032%=      5-min Rain = 0
KTA1 140323Z 11008KT 26/08 A2983 RMK A01 T02590082  RH  032%=      5-min Rain = 0
KTA1 140324Z 11008KT 26/08 A2983 RMK A01 T02590082  RH  033%=      5-min Rain = 0
KTA1 140325Z 11008KT 26/08 A2983 RMK A01 T02600081  RH  032%=      5-min Rain = 0
KTA1 140326Z 12008KT 26/08 A2983 RMK A01 T02610081  RH  032%=      5-min Rain = 0
KTA1 140327Z 12008KT 26/08 A2983 RMK A01 T02620081  RH  032%=      5-min Rain = 0
KTA1 140328Z 12008KT 26/08 A2983 RMK A01 T02630081  RH  032%=      5-min Rain = 0
KTA1 140329Z 12008KT 26/08 A2983 RMK A01 T02640081  RH  031%=      5-min Rain = 0
KTA1 140330Z 12009KT 27/08 A2983 RMK A01 T02650082  RH  031%=      5-min Rain = 0
KTA1 140331Z 12008KT 27/08 A2983 RMK A01 T02650082  RH  031%=      5-min Rain = 0
KTA1 140332Z 12008KT 27/08 A2983 RMK A01 T02650082  RH  031%=      5-min Rain = 0
KTA1 140333Z 12009KT 27/08 A2983 RMK A01 T02650083  RH  031%=      5-min Rain = 0
KTA1 140334Z 12008KT 27/08 A2983 RMK A01 T02650084  RH  032%=      5-min Rain = 0
KTA1 140335Z 12008KT 27/08 A2983 RMK A01 T02660084  RH  032%=      5-min Rain = 0
KTA1 140336Z 12008KT 27/09 A2983 RMK A01 T02660085  RH  032%=      5-min Rain = 0
KTA1 140337Z 12009KT 27/09 A2983 RMK A01 T02660085  RH  032%=      5-min Rain = 0
KTA1 140338Z 12009KT 27/09 A2983 RMK A01 T02660086  RH  032%=      5-min Rain = 0
KTA1 140339Z 12009KT 27/09 A2983 RMK A01 T02660087  RH  032%=      5-min Rain = 0
KTA1 140340Z 12009KT 27/09 A2983 RMK A01 T02670087  RH  032%=      5-min Rain = 0
KTA1 140341Z 12009KT 27/09 A2983 RMK A01 T02670088  RH  032%=      5-min Rain = 0
KTA1 140342Z 12009KT 27/09 A2983 RMK A01 T02670089  RH  032%=      5-min Rain = 0
KTA1 140343Z 12009KT 27/09 A2983 RMK A01 T02670089  RH  033%=      5-min Rain = 0
KTA1 140344Z 12009KT 27/09 A2983 RMK A01 T02680090  RH  033%=      5-min Rain = 0
KTA1 140345Z 11009KT 27/09 A2983 RMK A01 T02680090  RH  033%=      5-min Rain = 0
KTA1 140346Z 12008KT 27/09 A2983 RMK A01 T02680091  RH  033%=      5-min Rain = 0
KTA1 140347Z 12008KT 27/09 A2983 RMK A01 T02670091  RH  033%=      5-min Rain = 0
KTA1 140348Z 12008KT 27/09 A2983 RMK A01 T02670091  RH  033%=      5-min Rain = 0
KTA1 140349Z 12009KT 27/09 A2983 RMK A01 T02680092  RH  033%=      5-min Rain = 0
KTA1 140350Z 12008KT 27/09 A2983 RMK A01 T02680093  RH  033%=      5-min Rain = 0
KTA1 140351Z 12009KT 27/09 A2984 RMK A01 T02680093  RH  033%=      5-min Rain = 0
KTA1 140352Z 12008KT 27/09 A2983 RMK A01 T02670092  RH  033%=      5-min Rain = 0
KTA1 140353Z 12008KT 27/09 A2983 RMK A01 T02670093  RH  033%=      5-min Rain = 0
KTA1 140354Z 12008KT 27/09 A2983 RMK A01 T02670093  RH  034%=      5-min Rain = 0
KTA1 140355Z 12008KT 27/09 A2983 RMK A01 T02660094  RH  034%=      5-min Rain = 0
KTA1 140356Z 12008KT 27/09 A2983 RMK A01 T02660094  RH  034%=      5-min Rain = 0
KTA1 140357Z 12008KT 27/09 A2983 RMK A01 T02660094  RH  034%=      5-min Rain = 0
KTA1 140358Z 12008KT 27/09 A2983 RMK A01 T02660094  RH  034%=      5-min Rain = 0
KTA1 140359Z 12009KT 27/10 A2983 RMK A01 T02670095  RH  034%=      5-min Rain = 0
KTA1 140400Z 12008KT 27/10 A2983 RMK A01 T02670095  RH  034%=      5-min Rain = 0
KTA1 140401Z 12008KT 27/10 A2983 RMK A01 T02670096  RH  034%=      5-min Rain = 0
KTA1 140402Z 13008KT 27/10 A2983 RMK A01 T02670096  RH  034%=      5-min Rain = 0
KTA1 140403Z 13007KT 27/10 A2983 RMK A01 T02670096  RH  034%=      5-min Rain = 0
KTA1 140404Z 13008KT 27/10 A2983 RMK A01 T02660096  RH  034%=      5-min Rain = 0
KTA1 140405Z 13008KT 27/10 A2983 RMK A01 T02650096  RH  035%=      5-min Rain = 0
KTA1 140406Z 12008KT 27/10 A2983 RMK A01 T02650097  RH  035%=      5-min Rain = 0
KTA1 140407Z 13008KT 26/10 A2983 RMK A01 T02640096  RH  035%=      5-min Rain = 0
KTA1 140408Z 13008KT 26/10 A2983 RMK A01 T02640097  RH  035%=      5-min Rain = 0
KTA1 140409Z 13008KT 26/10 A2983 RMK A01 T02640097  RH  035%=      5-min Rain = 0
KTA1 140410Z 13008KT 26/10 A2983 RMK A01 T02640097  RH  035%=      5-min Rain = 0
KTA1 140411Z 12008KT 26/10 A2983 RMK A01 T02640097  RH  035%=      5-min Rain = 0
KTA1 140412Z 13008KT 26/10 A2983 RMK A01 T02630097  RH  035%=      5-min Rain = 0
KTA1 140413Z 12008KT 26/10 A2983 RMK A01 T02630097  RH  035%=      5-min Rain = 0
KTA1 140414Z 12008KT 26/10 A2983 RMK A01 T02630097  RH  035%=      5-min Rain = 0
KTA1 140415Z 12008KT 26/10 A2983 RMK A01 T02630097  RH  035%=      5-min Rain = 0
KTA1 140416Z 13008KT 26/10 A2983 RMK A01 T02620097  RH  035%=      5-min Rain = 0
KTA1 140417Z 12008KT 26/10 A2983 RMK A01 T02620097  RH  035%=      5-min Rain = 0
KTA1 140418Z 13007KT 26/10 A2983 RMK A01 T02620097  RH  035%=      5-min Rain = 0
KTA1 140419Z 12007KT 26/10 A2983 RMK A01 T02610097  RH  035%=      5-min Rain = 0
KTA1 140420Z 13007KT 26/10 A2983 RMK A01 T02610097  RH  036%=      5-min Rain = 0
KTA1 140421Z 13008KT 26/10 A2983 RMK A01 T02600097  RH  036%=      5-min Rain = 0
KTA1 140422Z 12008KT 26/10 A2983 RMK A01 T02600097  RH  036%=      5-min Rain = 0
KTA1 140423Z 12007KT 26/10 A2983 RMK A01 T02600097  RH  036%=      5-min Rain = 0
KTA1 140424Z 12008KT 26/10 A2983 RMK A01 T02590097  RH  036%=      5-min Rain = 0
KTA1 140425Z 12007KT 26/10 A2983 RMK A01 T02590097  RH  036%=      5-min Rain = 0
KTA1 140426Z 12007KT 26/10 A2983 RMK A01 T02590096  RH  036%=      5-min Rain = 0
KTA1 140427Z 12007KT 26/10 A2983 RMK A01 T02580096  RH  036%=      5-min Rain = 0
KTA1 140428Z 12007KT 26/10 A2983 RMK A01 T02580097  RH  036%=      5-min Rain = 0
KTA1 140429Z 12007KT 26/10 A2983 RMK A01 T02580096  RH  036%=      5-min Rain = 0
KTA1 140430Z 12006KT 26/10 A2983 RMK A01 T02570096  RH  036%=      5-min Rain = 0
KTA1 140431Z 12007KT 26/10 A2983 RMK A01 T02570096  RH  036%=      5-min Rain = 0
KTA1 140432Z 12007KT 26/10 A2983 RMK A01 T02570096  RH  036%=      5-min Rain = 0
KTA1 140433Z 12007KT 26/10 A2983 RMK A01 T02560096  RH  036%=      5-min Rain = 0
KTA1 140434Z 12006KT 26/10 A2983 RMK A01 T02560096  RH  036%=      5-min Rain = 0
KTA1 140435Z 12006KT 26/10 A2983 RMK A01 T02550096  RH  036%=      5-min Rain = 0
KTA1 140436Z 12006KT 26/10 A2983 RMK A01 T02550096  RH  037%=      5-min Rain = 0
KTA1 140437Z 12006KT 25/10 A2983 RMK A01 T02540096  RH  037%=      5-min Rain = 0
KTA1 140438Z 13006KT 25/10 A2983 RMK A01 T02540096  RH  037%=      5-min Rain = 0
KTA1 140439Z 13006KT 25/10 A2983 RMK A01 T02530096  RH  037%=      5-min Rain = 0
KTA1 140440Z 13006KT 25/10 A2983 RMK A01 T02520096  RH  037%=      5-min Rain = 0
KTA1 140441Z 13007KT 25/10 A2983 RMK A01 T02520096  RH  037%=      5-min Rain = 0
KTA1 140442Z 12007KT 25/10 A2983 RMK A01 T02510097  RH  038%=      5-min Rain = 0
KTA1 140443Z 13007KT 25/10 A2983 RMK A01 T02510097  RH  038%=      5-min Rain = 0
KTA1 140444Z 13007KT 25/10 A2983 RMK A01 T02510097  RH  038%=      5-min Rain = 0
KTA1 140445Z 13006KT 25/10 A2983 RMK A01 T02510097  RH  038%=      5-min Rain = 0
KTA1 140446Z 13007KT 25/10 A2983 RMK A01 T02510097  RH  038%=      5-min Rain = 0
KTA1 140447Z 13007KT 25/10 A2983 RMK A01 T02510097  RH  038%=      5-min Rain = 0
KTA1 140448Z 13007KT 25/10 A2983 RMK A01 T02500098  RH  038%=      5-min Rain = 0
KTA1 140449Z 12007KT 25/10 A2983 RMK A01 T02500098  RH  038%=      5-min Rain = 0
KTA1 140450Z 12007KT 25/10 A2983 RMK A01 T02490097  RH  038%=      5-min Rain = 0
KTA1 140451Z 12007KT 25/10 A2983 RMK A01 T02490097  RH  038%=      5-min Rain = 0
KTA1 140452Z 12007KT 25/10 A2983 RMK A01 T02480097  RH  038%=      5-min Rain = 0
KTA1 140453Z 12008KT 25/10 A2983 RMK A01 T02480098  RH  039%=      5-min Rain = 0
KTA1 140454Z 12007KT 25/10 A2983 RMK A01 T02470098  RH  039%=      5-min Rain = 0
KTA1 140455Z 12007KT 25/10 A2983 RMK A01 T02470098  RH  039%=      5-min Rain = 0
KTA1 140456Z 12006KT 25/10 A2983 RMK A01 T02470098  RH  039%=      5-min Rain = 0
KTA1 140457Z 12006KT 25/10 A2983 RMK A01 T02470097  RH  039%=      5-min Rain = 0
KTA1 140458Z 12005KT 25/10 A2983 RMK A01 T02460097  RH  039%=      5-min Rain = 0
KTA1 140459Z 12006KT 25/10 A2983 RMK A01 T02450097  RH  039%=      5-min Rain = 0

Page generated in 0.1228 seconds.